GFSSW_850_dewp_000.txt.gz
Dewpoint
-2 -2 -1 -2 -2 -3 -4 -6 -9 -11 -12 -10 -11 -8 -8 -7 -5 -9 -14 -11 -4 -4 -7 -10 -6 -6 -5 -4 -5 -7 -7 -7 -8 -6 -9 -13 -9 -5 2 5 5 4 5 5 5
-1 -1 -1 -1 -2 -3 -4 -6 -9 -10 -11 -11 -10 -6 -7 -5 -9 -9 -9 -3 -5 -5 -8 -10 -8 -5 -3 -5 -5 -8 -9 -9 -11 -9 -12 -14 -12 -7 -2 4 7 7 6 5 3
-1 -1 -1 -1 -2 -3 -5 -7 -9 -11 -10 -10 -7 -8 -4 -7 -4 -7 -2 -6 -7 -8 -12 -10 -9 -5 -4 -5 -7 -11 -11 -16 -15 -12 -15 -15 -15 -8 -4 2 6 7 5 4 3
-0 -0 -0 -1 -2 -3 -6 -8 -9 -10 -11 -8 -7 -4 -6 -4 2 -7 -10 -9 -10 -9 -11 -10 -8 -4 -4 -5 -7 -14 -16 -17 -16 -16 -16 -16 -15 -12 -7 -3 1 5 7 5 4
-0 -0 -0 -1 -2 -4 -7 -8 -9 -10 -10 -7 -4 -4 -5 -3 -5 -8 -6 -6 -8 -11 -13 -13 -5 -4 -8 -10 -13 -14 -16 -17 -14 -13 -15 -18 -17 -16 -11 -6 2 5 6 5 4
-1 -1 -1 -2 -3 -6 -8 -9 -9 -9 -7 -5 -4 -4 -3 1 -5 -6 -7 -8 -8 -7 -7 -7 -7 -8 -8 -10 -14 -15 -16 -17 -16 -12 -12 -14 -12 -12 -11 -4 5 6 6 5 4
-2 -1 -1 -3 -5 -8 -9 -9 -9 -7 -5 -4 -3 -4 -4 -6 -6 -8 -8 -9 -9 -8 -7 -8 -9 -9 -10 -10 -14 -16 -14 -14 -15 -10 -11 -10 -8 -10 -12 -7 5 6 6 5 4
-2 -2 -2 -4 -7 -9 -9 -8 -6 -5 -4 -2 -3 -5 -7 -5 -5 -9 -9 -9 -10 -7 -8 -9 -10 -9 -12 -13 -12 -11 -9 -9 -9 -8 -9 -10 -8 -9 -12 -9 1 5 6 5 5
-2 -3 -3 -6 -8 -8 -7 -6 -5 -4 -2 -2 -4 -5 -8 -3 -7 -9 -10 -8 -9 -10 -13 -11 -8 -9 -11 -10 -9 -7 -8 -6 -7 -8 -8 -8 -6 -8 -13 -12 -10 -6 -0 3 5
-2 -4 -4 -7 -8 -7 -6 -5 -4 -2 -2 -4 1 -1 -7 -6 -10 -11 -11 -8 -7 -7 -8 -9 -7 -6 -6 -7 -6 -7 -6 -6 -6 -7 -6 -7 -5 -5 -7 -4 1 1 3 4 5
-2 -5 -6 -7 -7 -6 -5 -3 -1 -1 -1 -8 -6 -1 -4 -7 -8 -11 -13 -8 -6 -6 -5 -5 -4 -4 -6 -7 -7 -7 -6 -4 -6 -8 -8 -3 -1 -2 3 4 4 5 5 5 5
-2 -5 -6 -7 -6 -5 -3 3 6 5 -1 -5 -4 -3 -5 -8 -7 -8 -8 -6 -6 -5 -5 -4 -4 -6 -6 -3 -3 -4 -2 -2 -5 -6 -7 -2 -2 -0 2 2 3 4 5 5 5
-3 -6 -6 -6 -6 -4 -1 4 3 -1 1 -5 -6 -6 -5 -5 -7 -6 -5 -5 -5 -5 -4 -2 -5 -6 -3 -2 -1 1 -1 -2 -3 -4 -6 -2 -1 1 -1 -0 1 3 3 3 3
-5 -6 -5 -6 -4 -4 -2 5 1 1 -3 -6 -6 -8 -6 -5 -6 -6 -7 -5 -4 -2 -3 -4 -3 -2 -1 -1 -1 2 -1 -2 -2 -3 -4 -5 2 -0 1 1 1 3 3 3 2
-2 -4 -5 -2 6 4 5 4 -3 2 1 -6 -5 -7 -6 -5 -5 -6 -7 -3 -3 -7 -2 -1 -1 -0 -0 -2 -2 1 -2 -1 -2 -1 -1 -1 2 1 1 2 1 2 3 2 1
1 -1 -2 -0 6 3 2 -4 -5 6 2 -4 -5 -5 -7 -5 -4 -6 -5 -3 -2 -3 -3 -2 -2 -2 -2 -2 -3 -3 -0 2 1 2 4 2 4 3 3 2 2 1 2 1 1
-0 0 4 3 5 1 -3 -5 5 4 -0 -4 -3 -3 -3 -3 -3 -2 -1 -1 1 1 1 -0 -1 -2 -2 0 -1 -1 3 7 6 5 5 3 5 5 1 1 2 2 1 1 1
-1 0 5 2 4 0 -4 3 6 2 -1 -5 -3 -2 -2 -2 -0 -0 -0 0 -2 1 2 3 4 -1 -3 -2 -1 -0 1 5 7 6 4 1 5 2 0 1 2 1 1 1 1
-1 -1 -0 -1 -2 -2 1 6 7 3 -4 -3 -2 0 -1 -2 -1 -0 -0 -1 -1 -1 2 3 2 -2 -4 -3 -1 1 -0 -1 3 3 4 3 1 -1 -1 -1 -1 -1 -1 1 1
-2 -1 -2 -2 -3 -4 6 7 5 -1 -1 -3 -1 -0 0 -1 -0 1 1 0 1 -2 -2 -1 1 -2 -4 -1 -1 -4 -3 3 3 3 4 3 4 4 1 0 -2 -0 0 1 2
-2 -2 -3 -5 -3 -5 6 7 2 -2 -0 -2 -1 -2 0 -0 0 2 3 2 2 1 -2 2 1 -0 1 0 1 1 1 2 2 3 4 4 2 -0 2 0 1 1 1 1 1
2 4 3 2 -5 4 5 5 -2 -2 -1 0 1 2 -0 2 5 5 5 3 2 2 -1 -0 1 2 0 -2 -2 -2 1 1 2 4 3 3 2 -2 -1 -0 1 1 1 1 1
4 7 6 1 -2 1 5 2 -1 -1 -1 -0 1 2 2 3 5 5 4 3 -1 1 2 0 1 3 4 3 -0 -1 -1 3 2 0 2 2 1 -0 1 0 1 1 2 2 2
5 4 4 3 5 5 5 2 2 1 1 1 0 1 2 3 4 5 5 3 -2 -1 1 2 4 1 4 2 -1 -3 -3 2 2 2 3 2 -0 2 2 2 2 2 2 2 2
6 3 -2 2 3 5 4 2 2 2 0 -0 0 2 2 4 5 6 4 3 1 0 2 2 3 2 -0 1 -0 -1 -1 -1 -1 1 2 1 2 3 2 2 2 2 2 1 -0
5 5 -2 -3 -4 4 5 4 3 2 1 1 1 3 3 3 3 5 3 3 3 2 4 4 3 3 2 3 4 1 -0 0 -0 -2 -1 3 4 2 2 2 2 1 1 -0 -4
4 5 -4 6 1 4 4 3 3 2 1 1 4 4 4 4 3 3 3 3 3 3 4 3 2 1 3 3 3 1 -0 1 -1 2 -1 1 3 2 2 2 1 0 -0 -3 -6

GFSSW_850_dewp_003.txt.gz
Dewpoint
-2 -2 -2 -1 -1 -1 -2 -3 -4 -7 -11 -12 -12 -12 -10 -7 -7 -6 -8 -16 -11 -4 -7 -11 -7 -5 -5 -4 -5 -8 -6 -7 -9 -10 -14 -7 -6 3 7 6 5 5 7 11 12
-2 -2 -2 -1 -1 -1 -2 -3 -4 -8 -11 -11 -11 -12 -6 -6 -6 -10 -21 -18 -7 -4 -6 -10 -7 -5 -3 -4 -5 -6 -7 -7 -11 -12 -15 -11 0 4 6 6 7 6 8 11 8
-1 -1 -1 -0 -0 -1 -2 -3 -6 -9 -10 -10 -11 -7 -5 -5 -4 -11 -7 -4 -5 -3 -5 -6 -7 -8 -4 -5 -7 -9 -11 -15 -14 -11 -7 -10 -7 -4 6 7 6 5 7 8 7
-0 -0 -0 0 -0 -1 -2 -4 -6 -8 -10 -10 -8 -6 -4 -4 -1 -6 -4 -5 -4 -3 -7 -7 -8 -5 -4 -4 -7 -12 -14 -17 -14 -12 -17 -15 -12 -2 -2 4 4 4 5 6 6
-0 -0 -1 0 -0 -1 -3 -4 -7 -8 -9 -9 -7 -4 -4 -3 -5 -6 -8 -7 -9 -10 -12 -9 -8 -7 -7 -9 -8 -17 -16 -14 -15 -16 -16 -16 -15 -11 -8 1 5 4 5 4 4
-1 -1 -1 -0 -1 -2 -4 -6 -8 -8 -9 -6 -5 -4 -3 -2 -5 -6 -7 -7 -7 -7 -8 -8 -11 -8 -6 -10 -15 -16 -16 -15 -12 -13 -17 -16 -12 -11 -8 5 6 5 5 4 4
-1 -2 -1 -1 -1 -4 -6 -7 -8 -9 -6 -5 -4 -3 -3 -6 -5 -6 -9 -9 -10 -9 -7 -7 -7 -6 -10 -11 -16 -16 -14 -13 -14 -11 -11 -11 -8 -10 -6 6 6 6 6 5 4
-0 -2 -1 -2 -3 -6 -7 -8 -8 -6 -5 -3 -3 -3 -6 -7 -6 -8 -10 -10 -10 -8 -9 -10 -10 -9 -13 -13 -12 -10 -10 -9 -11 -9 -9 -11 -10 -9 -6 6 7 7 7 6 5
0 -2 -2 -3 -5 -7 -7 -7 -6 -5 -3 -2 -3 -3 -8 -6 -7 -9 -10 -9 -10 -8 -8 -10 -9 -10 -12 -10 -10 -8 -8 -8 -7 -9 -8 -9 -6 -7 -9 5 6 7 7 7 7
0 -3 -3 -4 -6 -7 -6 -5 -4 -3 -1 -1 2 -3 -9 -7 -12 -9 -11 -9 -7 -7 -11 -9 -8 -7 -6 -10 -11 -9 -7 -8 -7 -8 -7 -7 -2 -0 -2 -4 2 3 3 4 5
-1 -4 -4 -5 -6 -6 -5 -4 -0 -0 -0 -10 -7 -4 -4 -5 -8 -10 -12 -10 -6 -7 -5 -6 -5 -5 -7 -7 -8 -8 -7 -6 -6 -7 -1 1 2 4 4 5 5 4 5 6 6
-2 -4 -6 -6 -6 -5 -4 3 6 4 2 -8 -6 -4 -4 -7 -9 -11 -11 -6 -6 -5 -6 -5 -4 -6 -4 -2 -4 -4 -4 -3 -4 -2 0 2 2 2 2 4 5 4 5 6 6
-2 -4 -5 -6 -5 -4 -1 2 4 2 2 -6 -5 -5 -5 -5 -7 -6 -5 -5 -5 -5 -4 -4 -5 -6 -3 -2 -0 0 -2 -2 -2 -1 -0 1 2 0 -0 2 4 4 3 4 4
-3 -4 -5 -5 -3 -4 -2 5 3 1 -3 -5 -7 -8 -6 -6 -6 -6 -6 -5 -4 -3 -4 -3 -1 -2 -2 -2 -1 1 -1 -2 -2 1 3 -1 5 1 1 3 3 4 3 3 3
-2 -4 -5 -3 4 -0 5 3 -0 3 -1 -7 -5 -6 -6 -4 -6 -6 -3 -3 -4 -4 -3 -1 -1 -1 -1 -2 -2 0 -2 -2 -2 -2 -1 0 3 2 1 3 3 3 3 2 1
0 -4 -4 3 6 3 2 -5 -2 4 0 -4 -5 -5 -6 -5 -4 -5 -3 -2 -3 -2 -2 -2 -2 -3 -2 -2 -2 -3 1 2 2 2 4 2 3 3 3 3 2 2 3 2 2
1 -2 -1 4 6 0 -2 -5 2 5 -2 -4 -3 -4 -4 -3 -2 -2 -2 -1 0 1 1 -1 -1 -3 -2 -0 -2 -1 2 6 5 5 5 2 4 4 1 1 1 2 2 2 1
1 2 3 4 4 -0 0 0 6 2 -0 -5 -3 -2 -2 -1 -1 -0 -1 -0 -2 1 2 2 3 -2 -4 -2 -1 -0 1 5 6 5 3 2 5 3 0 1 1 1 1 1 2
-0 4 4 -2 -0 -1 -3 5 6 3 -3 -3 -1 -0 -0 -1 -1 -0 -0 -1 -1 -1 2 2 1 -3 -4 -4 -1 -0 0 -1 4 2 4 3 1 -0 0 2 2 1 2 2 3
-1 2 -0 -1 -2 -4 5 6 6 2 -2 -3 0 -0 1 -1 1 2 2 1 1 -1 -2 -0 -1 -2 -4 -1 -2 -3 -2 2 2 2 3 3 3 4 1 2 -1 -0 2 2 2
-1 -2 -2 -3 -2 -5 4 6 5 -2 0 -3 -2 -1 -0 -0 1 3 3 2 2 2 -1 1 -2 -1 -1 -0 -0 0 0 1 2 2 3 4 4 -1 1 -1 0 2 1 1 1
-1 -1 2 -3 -3 3 3 5 3 -2 -1 1 2 0 -0 3 5 5 4 3 2 2 -1 0 1 2 -0 -2 -2 -2 0 -1 1 3 3 2 1 -2 -0 0 1 1 1 1 0
1 8 7 2 -1 0 2 5 0 -1 -0 0 1 2 2 4 5 5 4 2 -2 1 2 -1 1 3 4 2 -1 -1 -0 1 0 0 4 1 -0 0 -0 1 1 1 1 1 1
3 6 7 4 -2 -2 1 3 2 1 1 0 1 2 2 5 5 5 5 3 -1 -0 2 1 3 0 4 2 -1 -3 -2 1 0 1 1 1 -1 2 2 1 2 2 1 1 1
4 2 3 3 4 6 3 3 2 2 0 -0 0 2 2 5 5 6 4 2 0 1 3 1 1 1 1 1 -1 -1 -2 1 2 1 2 1 1 1 2 2 2 1 1 1 -1
6 2 -1 -2 -2 4 5 4 2 2 1 1 2 3 2 3 3 5 3 2 1 3 4 1 3 1 4 3 2 -0 -2 -1 -1 -1 1 2 4 2 2 2 2 1 1 -0 -3
4 5 -3 3 2 3 4 4 3 2 2 2 3 3 3 4 3 3 2 2 3 4 3 2 2 -1 -2 2 1 -3 -1 0 -1 1 1 4 2 2 2 2 1 1 1 -1 -5

GFSSW_850_dewp_006.txt.gz
Dewpoint
-4 -3 -2 -2 -2 -1 -1 -1 -2 -4 -6 -11 -12 -11 -11 -11 -7 -8 -10 -12 -14 -5 -9 -11 -10 -9 -5 -4 -5 -7 -6 -6 -4 1 -0 -4 -1 6 7 6 6 6 10 9 11
-3 -2 -2 -1 -1 -0 -1 -1 -2 -4 -7 -11 -11 -10 -9 -7 -6 -8 -14 -14 -14 -6 -6 -10 -7 -5 -4 -4 -4 -6 -6 -7 -10 -7 1 -0 1 4 6 6 6 7 10 11 11
-2 -1 -1 -1 -0 0 -0 -1 -2 -4 -7 -9 -9 -9 -7 -5 -5 -12 -15 -8 -8 -7 -5 -5 -8 -6 -3 -5 -5 -7 -7 -12 -11 -8 -5 -4 -3 2 6 6 6 9 11 12 10
-2 -0 -1 -1 -0 0 -0 -1 -3 -5 -8 -9 -9 -6 -5 -4 -1 -6 -5 -4 -6 -3 -4 -5 -6 -6 -4 -5 -6 -10 -11 -14 -8 -8 -9 -3 -7 4 2 3 4 3 7 11 7
-0 -0 -1 -1 -1 0 -0 -2 -4 -6 -8 -8 -7 -5 -4 -3 -6 -5 -8 -8 -6 -5 -6 -7 -7 -6 -4 -5 -10 -12 -15 -13 -14 -13 -12 -10 -7 1 -5 4 4 6 8 8 6
-0 -1 -2 -2 -1 0 -2 -3 -5 -7 -8 -8 -5 -4 -3 1 -5 -5 -8 -7 -7 -8 -6 -6 -10 -11 -6 -10 -9 -11 -16 -14 -12 -16 -16 -14 -12 -10 -8 4 5 5 6 6 6
-0 -0 -2 -2 -1 -1 -3 -4 -7 -8 -8 -5 -4 -3 -2 -6 -6 -7 -8 -8 -7 -8 -7 -7 -9 -7 -6 -10 -15 -15 -15 -14 -13 -12 -12 -11 -10 -10 -2 6 5 5 6 7 8
1 1 -2 -2 -2 -3 -4 -6 -8 -7 -5 -4 -3 -2 -5 -8 -7 -6 -9 -10 -9 -9 -8 -7 -7 -6 -5 -12 -11 -11 -10 -11 -13 -10 -9 -13 -11 -8 5 6 6 5 5 5 6
1 1 -2 -2 -3 -4 -6 -8 -6 -5 -4 -2 -1 -0 -5 -8 -7 -9 -10 -10 -8 -8 -7 -7 -8 -9 -12 -10 -9 -9 -8 -9 -9 -9 -8 -9 -4 -0 0 7 6 6 6 6 5
1 -0 -2 -2 -4 -6 -6 -5 -5 -4 -2 0 3 0 -10 -7 -9 -9 -10 -11 -7 -7 -8 -8 -8 -7 -7 -11 -7 -9 -8 -8 -7 -8 -0 -0 4 4 2 5 5 5 6 6 7
1 -1 -3 -3 -5 -5 -5 -4 -1 1 0 -8 -7 -6 -6 -5 -11 -9 -10 -10 -6 -7 -5 -6 -5 -5 -7 -8 -11 -9 -8 -8 -7 -4 2 4 4 3 5 5 4 5 5 6 6
1 -3 -4 -5 -5 -5 -4 1 6 4 2 -9 -8 -5 -4 -4 -8 -8 -10 -7 -6 -5 -6 -5 -4 -6 -4 -3 -4 -4 -3 -2 -2 -1 2 3 2 1 2 4 5 5 6 7 7
-0 -4 -4 -5 -5 -4 -1 2 5 4 2 -5 -5 -5 -5 -6 -7 -8 -7 -5 -5 -5 -5 -4 -5 -4 -3 -2 -1 -0 -3 -3 0 2 1 2 3 2 1 4 4 5 6 5 4
-1 -4 -4 -5 -3 -3 -2 3 5 4 -2 -4 -7 -8 -6 -5 -6 -6 -5 -5 -4 -4 -3 -1 -2 -3 -2 -2 -1 0 -2 -1 2 2 4 -0 6 2 2 4 4 4 4 3 3
-3 -4 -3 -3 0 1 5 -0 1 3 -0 -7 -6 -7 -6 -4 -7 -4 -2 -4 -4 -3 -2 -0 -1 -1 -2 -2 -1 -0 -2 -2 -2 -1 -1 1 4 2 3 4 4 4 3 3 2
-3 -2 -1 3 5 6 -2 -2 0 3 1 -5 -5 -7 -5 -4 -4 -3 -2 -4 -3 -1 -2 -2 -2 -3 -2 -2 -3 -2 1 1 2 2 3 1 2 3 4 3 3 3 3 2 2
-1 -2 -1 5 7 -0 -3 -2 2 4 -2 -4 -4 -5 -4 -2 -1 -2 -2 -1 -1 1 1 -1 -1 -3 -3 -1 -2 0 1 5 4 4 5 2 3 2 1 1 2 3 3 3 2
2 1 1 6 3 -1 -0 -2 3 2 -0 -5 -3 -3 -2 -1 -1 -1 -1 -0 -2 -0 2 1 1 -2 -4 -2 -1 -1 1 4 5 5 5 2 5 3 -0 -0 1 2 2 3 3
1 2 6 -0 -2 -1 -2 1 4 3 -3 -2 -2 -1 -0 -1 -1 -0 -0 -1 -1 -1 2 1 0 -3 -4 -3 -1 -1 0 -1 4 2 4 3 2 1 2 2 1 2 2 3 3
2 6 1 -3 -3 -2 2 4 6 3 -1 -3 -1 -1 1 -0 1 1 1 1 1 0 -2 0 -1 -2 -3 -2 -2 -2 -2 0 2 2 3 3 3 4 3 3 2 2 2 2 2
4 2 2 -1 -3 -3 1 4 5 3 0 -3 -1 0 -0 -0 1 2 2 2 2 1 -0 -1 -1 -1 -2 -0 -0 -0 0 1 1 2 2 3 3 0 1 2 1 1 2 2 2
3 -1 2 -1 -2 2 1 4 4 -1 -1 1 0 -1 -1 3 4 4 3 2 2 2 -1 -0 1 2 -1 -2 -1 -2 -1 -2 -1 -0 2 1 1 -1 -1 -0 -0 1 1 1 1
-0 6 5 -1 -1 0 -0 3 3 -1 -0 0 1 1 2 4 5 4 4 2 -2 0 0 -1 1 3 2 -1 -2 -1 1 0 -1 1 3 2 -0 0 1 1 1 1 1 0 -0
0 6 8 5 -4 -2 -1 0 2 1 1 0 2 2 3 5 4 5 4 2 -0 1 2 -0 1 -0 2 -0 -1 -2 1 -0 -1 1 1 1 -2 2 2 2 2 1 1 1 0
1 4 5 4 3 0 -1 2 2 2 0 -0 1 1 3 5 5 5 4 2 1 2 3 -1 1 1 2 1 -0 -2 -2 1 0 -1 0 -1 -1 -2 1 1 2 1 1 1 0
3 2 2 2 3 5 3 3 2 1 1 1 1 3 2 3 2 5 3 0 -2 4 3 0 2 -0 3 2 1 0 -2 -1 -0 -1 1 1 1 1 1 1 2 1 1 1 0
5 3 1 2 2 4 4 4 3 2 3 2 2 3 3 4 3 2 2 2 2 3 2 -0 1 -3 -4 1 -1 -3 -2 -1 -2 -1 -1 2 -0 2 2 2 2 1 1 1 -0

GFSSW_850_dewp_009.txt.gz
Dewpoint
-7 -6 -5 -3 -3 -2 -2 -1 -1 -2 -3 -5 -7 -10 -10 -12 -10 -8 -12 -14 -12 -8 -7 -8 -6 -10 -5 -5 -5 -7 -6 -0 -1 3 7 2 6 5 7 7 7 7 12 11 12
-7 -4 -3 -2 -2 -2 -1 -1 -1 -2 -3 -5 -9 -10 -11 -9 -7 -9 -12 -12 -10 -6 -9 -10 -9 -9 -4 -4 -4 -6 -5 -5 -6 2 3 1 1 6 6 6 6 11 11 11 12
-5 -2 -2 -2 -1 -2 -1 -1 -1 -2 -4 -6 -9 -10 -9 -6 -5 -6 -13 -16 -13 -5 -6 -9 -7 -4 -4 -4 -5 -6 -5 -9 -11 -4 1 0 -1 5 6 6 6 11 12 11 13
-3 -1 -1 -1 -1 -2 -1 -1 -2 -3 -5 -8 -9 -9 -6 -5 -2 -5 -9 -8 -5 -6 -6 -6 -6 -6 -4 -4 -6 -8 -8 -14 -7 -6 -3 -1 1 6 5 3 4 7 7 10 12
-2 -0 -1 -2 -2 -2 -1 -1 -3 -4 -7 -9 -9 -6 -4 -3 -7 -5 -6 -5 -7 -7 -7 -7 -6 -6 -3 -4 -7 -9 -11 -14 -14 -11 -4 -5 1 4 -5 3 4 7 9 8 8
-1 0 -2 -2 -2 -1 -1 -2 -4 -6 -8 -9 -7 -5 -3 1 -5 -5 -7 -6 -6 -5 -4 -6 -9 -9 -6 -7 -7 -10 -14 -13 -14 -13 -8 -8 -11 -4 -4 5 5 7 8 10 9
-0 0 -0 -1 -2 -1 -1 -3 -6 -7 -8 -7 -5 -4 -3 -6 -6 -7 -6 -8 -7 -7 -7 -8 -9 -8 -6 -8 -13 -15 -12 -12 -11 -13 -11 -11 -9 -7 5 5 7 11 11 11 9
0 1 1 -0 -1 -1 -3 -6 -7 -8 -6 -5 -4 -3 -5 -8 -8 -6 -7 -9 -9 -7 -6 -6 -6 -7 -6 -11 -10 -11 -9 -9 -12 -9 -9 -13 -9 -1 5 6 6 8 10 9 8
1 2 1 -1 -1 -2 -5 -7 -7 -6 -5 -3 -1 -1 -6 -8 -7 -9 -9 -9 -9 -8 -7 -7 -6 -5 -11 -8 -7 -7 -9 -8 -8 -4 -8 -6 -3 3 2 6 6 5 6 6 7
2 2 1 -1 -2 -4 -7 -6 -5 -4 -3 -1 1 2 -8 -6 -7 -10 -9 -10 -7 -6 -6 -5 -7 -6 -8 -9 -6 -7 -7 -8 -7 -4 0 2 4 4 5 6 6 6 6 6 5
2 2 -0 -2 -3 -6 -6 -4 -1 0 -1 -6 -6 -5 -7 -4 -8 -10 -9 -10 -6 -7 -4 -6 -5 -5 -6 -9 -10 -8 -8 -7 -5 0 3 4 4 4 4 5 5 6 6 6 7
2 2 -2 -2 -5 -6 -5 -2 3 4 3 -6 -6 -6 -6 -4 -7 -9 -10 -7 -6 -4 -5 -4 -3 -6 -3 -3 -5 -4 -3 0 1 1 3 3 5 4 4 4 5 5 6 6 6
2 1 -2 -3 -5 -5 -4 3 3 6 4 -3 -5 -5 -5 -5 -6 -9 -9 -5 -6 -4 -4 -2 -4 -4 -2 -2 -0 -1 -1 -0 1 2 2 3 4 5 4 4 5 5 6 7 7
2 -0 -2 -5 -4 -4 -1 -1 6 6 -1 -4 -6 -7 -6 -5 -5 -5 -5 -5 -4 -3 -1 -0 -2 -3 -2 -1 -1 1 -2 1 3 2 3 -0 2 5 5 5 5 5 5 5 5
1 -1 -3 -3 -1 -3 5 5 5 4 3 -5 -7 -6 -5 -6 -6 -3 -3 -4 -3 -2 -2 -0 -1 -2 -0 -1 -1 1 0 1 -1 -1 0 2 3 3 4 6 5 4 4 3 3
2 -2 -2 -2 2 2 6 3 5 5 4 -5 -6 -6 -4 -4 -4 -3 -3 -3 -3 -1 -1 -1 -3 -2 -2 -1 -1 0 1 1 1 1 4 1 1 3 5 5 4 4 4 2 1
2 -3 -2 0 4 6 3 3 4 5 -2 -4 -4 -5 -3 -1 -1 -2 -1 0 0 2 2 -1 -1 -3 -3 -0 -1 0 2 5 5 6 4 2 3 2 1 2 3 3 3 2 1
2 -1 -0 3 7 2 1 -1 0 1 1 -5 -3 -3 -2 -1 -0 -1 -1 1 -1 -0 1 0 2 -3 -3 -1 0 0 2 6 6 7 4 2 5 2 -0 0 2 2 3 2 2
2 2 2 6 5 2 -1 3 1 2 -2 -2 -2 -1 0 -1 -0 0 -0 0 -1 -1 2 2 1 -4 -3 -3 -1 -1 1 0 4 2 4 3 2 0 1 1 2 3 3 3 3
2 4 3 5 1 0 2 1 3 3 -0 -3 -2 -1 2 0 1 1 1 1 0 1 -1 1 0 -2 -2 -2 -1 -1 -1 2 2 4 3 1 3 3 3 2 2 2 3 3 3
2 4 6 1 0 -2 3 1 5 4 1 -2 -0 0 0 1 1 2 2 2 2 1 -1 -2 1 1 -1 0 1 0 1 1 1 2 1 2 0 1 2 1 2 2 3 2 3
4 1 3 0 -1 1 2 3 4 3 -0 1 -2 -1 0 2 3 3 3 2 2 2 1 -0 2 3 -0 -2 -1 -1 -0 -0 2 0 2 3 0 -1 0 -0 2 2 2 2 2
4 7 6 -1 1 2 -1 2 3 0 -0 0 2 1 3 4 4 4 4 1 -1 0 2 0 2 4 1 -2 -2 -0 1 -1 0 2 4 8 -1 -1 1 0 1 1 2 2 2
2 7 8 1 -4 -1 -1 0 1 1 1 1 2 2 4 5 4 5 5 1 0 2 1 -1 1 2 3 -1 -0 1 2 -1 -0 3 2 3 -1 -2 1 1 1 1 1 1 0
2 5 6 5 1 -2 -4 -0 2 2 0 -0 2 2 4 5 5 5 4 1 2 2 2 -0 2 1 2 1 0 -2 0 0 -1 -1 2 -0 -0 -3 -1 1 1 2 1 0 -0
1 3 2 3 -2 -0 -1 3 3 1 1 1 3 3 2 4 2 5 3 1 0 3 2 0 3 1 3 2 1 1 -1 -1 1 0 -1 -0 0 -2 0 1 2 1 1 0 0
3 1 -3 2 4 2 3 2 2 2 3 2 2 3 3 4 3 2 0 1 2 3 2 1 2 0 -0 0 -2 1 -0 -1 -0 -1 0 2 -1 1 2 1 1 2 1 1 1

GFSSW_850_dewp_015.txt.gz
Dewpoint
-9 -9 -8 -7 -7 -5 -5 -4 -3 -2 -2 -3 -3 -6 -10 -13 -13 -11 -8 -8 -9 -14 -6 -3 -5 -4 -7 -10 -11 -9 -8 -9 -6 3 6 1 0 2 3 5 8 8 7 11 14
-9 -9 -7 -6 -6 -3 -3 -5 -4 -2 -2 -3 -4 -7 -12 -12 -11 -8 -6 -9 -12 -13 -6 -5 -5 -7 -9 -10 -10 -11 -10 -9 -0 7 3 2 2 2 3 4 7 9 10 12 13
-9 -8 -6 -5 -4 -2 -3 -5 -3 -2 -2 -4 -6 -10 -11 -10 2 -1 -4 -8 -12 -11 -6 -8 -8 -9 -9 -10 -10 -11 -7 -6 1 -2 1 1 1 0 3 8 6 9 11 11 13
-9 -7 -5 -4 -2 -2 -3 -4 -3 -2 -3 -5 -8 -11 -11 -7 1 -2 -7 -16 -13 -8 -6 -9 -10 -9 -9 -10 -10 -8 -9 -7 -1 -4 -4 -3 -2 1 7 6 7 8 10 10 12
-8 -6 -4 -2 -1 -1 -2 -3 -2 -2 -4 -6 -9 -10 -8 5 0 -5 -10 -14 -11 -6 -6 -9 -9 -9 -10 -11 -11 -7 -6 -7 -4 -1 -2 0 4 0 2 2 6 10 10 9 10
-7 -5 -2 -1 -0 -0 -2 -3 -2 -4 -5 -8 -10 -8 -2 2 -4 -2 -6 -11 -4 -3 -7 -9 -9 -11 -12 -10 -9 -9 -8 -10 -6 -4 -3 -1 -2 -4 1 3 6 7 6 6 6
-7 -4 -1 -0 1 0 -2 -3 -3 -5 -7 -9 -9 -6 2 0 -3 1 -4 -4 -4 -6 -8 -7 -7 -8 -7 -7 -8 -10 -10 -9 -5 -5 -4 -1 -7 -2 2 3 4 4 4 5 5
-6 -3 -0 0 1 1 -2 -3 -4 -7 -8 -9 -6 -4 3 -1 -3 -1 -0 -2 -3 -4 -5 -3 -5 -6 -5 -8 -9 -10 -11 -5 -6 -5 -5 -6 -7 -2 1 2 3 4 5 5 6
-6 -2 0 1 1 0 -3 -4 -6 -8 -8 -6 -3 3 1 -5 -5 -6 -3 -4 -2 -3 -4 -4 -3 -4 -5 -5 -8 -10 -8 -8 -6 -8 -6 -9 -7 -1 -0 2 3 4 6 6 6
-5 -1 0 2 1 -0 -3 -5 -7 -7 -6 -4 -1 5 -1 -5 -4 -8 -5 -4 -3 -2 -2 -3 -4 -3 -4 -6 -6 -7 -9 -10 -8 -8 -11 -13 -6 -3 -1 -1 3 3 5 6 6
-5 -0 1 2 1 -1 -4 -6 -1 4 -1 0 -2 -2 -5 -5 -5 -8 -8 -6 -3 -3 -4 -4 -4 -4 -7 -8 -10 -10 -11 -12 -11 -10 -12 -11 -6 -6 -1 -1 -0 1 3 4 5
-4 1 2 2 1 -2 -4 2 2 6 3 -6 -2 -3 -3 -4 -5 -9 -8 -7 -5 -5 -5 -4 -2 -7 -10 -10 -11 -11 -10 -8 -7 -8 -4 -8 -6 -5 -2 -1 0 1 2 3 5
-3 1 2 2 0 -3 -5 -1 5 6 5 -1 -3 -3 -5 -3 -7 -9 -8 -8 -7 -6 -3 -2 -6 -7 -7 -10 -10 -9 -10 -5 -6 -5 -5 -6 -3 -0 -1 -1 2 2 2 3 5
-1 2 2 2 -1 1 -1 -6 -1 1 4 -3 -4 -4 -5 -6 -7 -7 -8 -7 -8 -6 -6 0 -5 -7 -8 -8 -8 -4 -5 -6 -6 -2 -2 -5 -3 -1 1 1 1 2 3 4 5
-1 2 2 2 8 3 6 6 4 7 5 -6 -6 -5 -6 -7 -10 -6 -6 -7 -7 -6 -5 -2 -4 -5 -6 -4 -3 1 -3 -4 -4 -4 -2 -4 -3 4 1 1 2 2 3 4 6
-0 2 3 2 -1 5 7 10 9 8 3 -5 -7 -7 -5 -6 -8 -8 -7 -7 -5 -6 -6 0 -4 -5 -4 -3 -3 -3 -2 -2 -3 -3 1 -5 -3 -1 1 -0 1 2 4 5 6
0 2 2 1 3 6 5 9 7 4 -5 -6 -7 -7 -6 -7 -6 -6 -6 -6 -7 -3 -2 -4 -4 -3 -3 -2 -2 -4 -2 0 -1 1 1 -3 -2 -4 -5 -1 -1 3 4 5 5
1 3 3 2 6 7 10 7 5 -3 -4 -8 -9 -7 -5 -7 -7 -6 -8 -7 -8 -4 -2 -3 1 -2 -3 -3 -3 -2 -3 -0 -0 0 -3 -1 -2 -5 -3 -4 -2 2 3 4 3
2 4 3 -0 1 7 8 9 3 -7 -6 -6 -8 -6 -5 -6 -6 -5 -4 -6 -7 -6 -3 -4 -2 -3 -3 -3 -4 -3 -0 -3 1 2 2 -3 -7 -5 -1 -1 -1 2 3 3 2
4 4 3 -0 -1 8 7 5 -1 -4 -5 -7 -5 -6 -3 -4 -5 -5 -3 -4 -2 -2 -2 -4 -2 -4 -2 -2 -2 -1 -3 -0 -2 2 2 -5 -5 -8 -0 -1 -0 2 2 2 2
6 5 0 -1 1 7 6 2 -3 -2 -3 -5 -6 -6 -5 -4 -5 -5 -4 -2 -2 -2 -3 -6 -4 0 -1 -1 -3 -0 -2 -3 -1 1 1 -3 -5 -6 -6 -2 -1 0 2 2 2
6 5 9 1 5 5 5 -0 -4 -0 1 -3 -3 -6 -5 -4 -3 -4 -6 -5 -1 -2 -3 -5 -2 3 0 -2 -2 -1 -2 -2 1 -2 -0 4 -3 -6 -4 -3 -2 -1 0 1 2
6 5 10 4 8 9 1 -2 -3 -0 -1 -1 -3 -5 -6 -4 -3 -4 -4 2 2 0 -3 -0 -1 3 1 0 -2 -3 -3 -3 -4 1 -1 6 -3 -6 -4 -4 -3 -2 -0 1 1
4 7 8 8 5 3 2 -0 -0 0 -1 -2 -4 -2 -1 0 -1 1 1 2 2 0 -0 -1 -2 0 3 -0 -2 1 -3 -4 -3 1 -1 -1 -7 -8 -6 -5 -6 -3 -2 -0 1
2 3 4 8 6 2 0 -1 -2 0 -0 0 1 -1 -1 1 2 2 2 2 2 2 -0 1 2 -1 -1 -1 -2 -3 -4 -3 -3 -4 -1 -4 -10 -12 -12 -10 -8 -6 -3 -2 1
2 1 2 4 2 2 1 -1 -2 -1 0 2 0 -2 -2 1 1 1 3 2 3 3 3 2 3 3 4 -0 -1 -1 -3 -6 -5 -5 -6 -7 -7 -11 -8 -8 -6 -5 -2 -1 0
5 2 2 5 4 2 2 -2 -2 -1 3 0 -1 0 1 3 3 3 2 1 1 4 4 4 5 4 1 1 2 5 2 -3 -5 -6 -5 -3 -6 -7 -4 -5 -5 -4 -2 -1 -0

GFSSW_850_dewp_018.txt.gz
Dewpoint
-8 -9 -9 -9 -8 -7 -7 -5 -4 -4 -4 -3 -4 -5 -7 -11 -14 -14 -11 -11 -4 -12 -10 -2 -10 -5 -5 -8 -10 -13 -10 -7 -7 2 8 6 3 2 5 6 4 5 8 11 13
-7 -9 -9 -8 -7 -7 -5 -3 -4 -5 -3 -3 -5 -7 -10 -13 -14 -12 -3 -10 -10 -10 -8 -3 -6 -7 -5 -8 -10 -11 -8 -8 5 6 8 7 5 2 2 7 7 8 8 13 13
-6 -8 -9 -8 -6 -6 -3 -3 -4 -4 -3 -3 -6 -8 -13 -12 0 1 -3 -7 -11 -13 -10 -5 -6 -7 -8 -10 -10 -11 -9 -11 5 6 5 7 3 2 2 4 8 10 11 12 12
-6 -9 -8 -7 -6 -4 -2 -3 -3 -3 -2 -4 -7 -11 -13 -9 2 -0 -6 -16 -13 -12 -5 -4 -8 -8 -10 -9 -11 -9 -12 -9 2 2 4 3 4 2 1 3 2 9 9 11 12
-6 -8 -8 -7 -5 -2 -2 -2 -3 -3 -3 -5 -8 -11 -10 6 2 -1 -7 -11 -14 -8 -2 -7 -10 -10 -9 -10 -11 -11 -8 -8 1 -0 3 3 3 4 3 2 5 9 9 10 10
-7 -7 -7 -6 -3 -1 -1 -2 -3 -4 -4 -7 -10 -11 -3 3 -4 -1 -7 -9 -10 -6 -4 -10 -10 -10 -10 -12 -12 -10 -7 -7 -3 3 -1 3 1 6 5 5 8 8 7 8 7
-5 -6 -7 -4 -1 -1 -1 -2 -3 -4 -6 -9 -10 -9 3 0 -3 0 -4 -6 -3 -3 -8 -8 -8 -8 -8 -9 -9 -8 -7 -9 -5 -4 -0 -0 3 -0 5 6 6 4 5 5 4
-5 -6 -6 -3 -1 -0 -1 -3 -4 -6 -8 -9 -8 -5 3 -0 -2 -2 -1 -2 -4 -5 -7 -5 -5 -6 -6 -5 -8 -8 -7 -4 -7 -6 -3 -1 -3 -3 2 2 2 3 3 3 3
-2 -5 -5 -1 -0 -0 -1 -4 -5 -7 -9 -8 -3 4 3 -1 -4 -5 -3 -2 -3 -4 -5 -4 -4 -4 -5 -4 -5 -8 -6 -5 -4 -7 -5 -5 -4 -4 1 2 3 3 4 4 3
-0 -4 -4 -0 1 1 -1 -5 -7 -8 -6 -5 -3 4 -2 -4 -5 -8 -6 -4 -3 -3 -3 -3 -4 -4 -4 -4 -4 -6 -6 -7 -6 -8 -6 -8 -5 -3 -2 4 3 3 3 5 5
1 -4 -3 1 1 1 -2 -7 2 4 4 -1 -1 -2 -7 -6 -5 -7 -6 -4 -3 -2 -2 -3 -2 -3 -2 -4 -6 -7 -7 -7 -9 -9 -9 -10 -6 -4 -3 -1 1 3 4 5 5
2 -3 -2 1 2 1 -2 4 3 6 6 1 -5 -1 -3 -4 -5 -8 -8 -6 -3 -2 -4 -5 -3 -5 -5 -6 -6 -9 -7 -9 -10 -12 -11 -12 -8 -8 -4 -3 -0 1 3 4 5
3 -3 -2 1 2 1 -2 -7 3 4 4 0 -5 -5 -4 -5 -6 -9 -8 -7 -5 -4 -3 0 1 -0 -7 -5 -7 -9 -6 -5 -8 -9 -13 -1 -7 -7 -6 -3 -3 -1 -0 2 4
4 -2 -2 2 2 -1 -3 -10 1 3 5 -1 -4 -5 -5 -5 -7 -9 -9 -8 -3 -2 -3 -2 -1 -3 -7 -9 -10 -4 -3 -5 -5 -2 -3 -3 -0 -2 1 -4 -3 -1 -0 1 3
4 -0 -1 3 8 4 6 1 5 8 8 -4 -4 -6 -6 -7 -9 -8 -8 -7 -5 -2 -3 -1 1 -5 -6 -1 -3 -2 -2 -3 -5 -6 2 3 2 4 3 4 -1 1 2 2 4
4 0 0 3 2 2 8 10 7 10 7 -4 -6 -6 -7 -8 -10 -10 -7 -8 -8 -7 -3 -1 -3 -3 -1 -3 -4 -2 -1 -2 -6 -4 7 3 4 3 4 3 3 -0 1 3 4
5 1 0 3 4 1 5 11 8 6 -5 -5 -5 -7 -7 -7 -7 -9 -6 -7 -5 -3 0 -3 -5 -7 -4 -6 -5 -6 -5 0 8 7 5 -3 1 5 2 3 8 7 2 4 6
5 3 0 3 6 8 9 11 7 -1 -2 -10 -8 -7 -6 -7 -8 -8 -6 -7 -8 -7 -5 2 3 -5 -7 -7 1 0 -6 3 10 10 3 1 1 -4 0 -0 5 3 3 5 6
6 4 2 2 4 9 10 11 5 -1 -5 -7 -9 -7 -6 -7 -8 -7 -7 -7 -8 -7 4 6 3 0 -4 -5 -6 -7 -2 -4 -0 8 5 -3 -7 -4 -3 -3 -4 2 3 5 5
6 5 1 2 3 8 10 8 3 -2 -7 -7 -7 -8 -5 -6 -6 -6 -6 -8 -8 -7 2 7 7 1 -3 -4 -4 -3 -5 2 -0 3 3 -3 -5 -0 -0 -2 -2 1 3 4 4
6 5 2 3 3 8 9 7 3 -2 -5 -5 -7 -8 -7 -4 -7 -6 -5 -3 -2 -4 -5 -5 1 -1 -2 -2 -6 -2 -3 -3 -4 4 8 7 -2 -6 -5 -3 -2 -1 3 3 3
4 4 3 4 5 2 8 3 0 -2 -4 -3 -5 -8 -7 -5 -5 -6 -6 -5 -4 -5 -3 -5 -4 5 -1 -4 -4 -3 -1 -4 9 3 7 8 2 -7 -5 -6 -4 -3 -0 2 2
4 4 7 3 4 7 5 3 0 -1 -1 -0 -3 -4 -7 -5 -3 -5 -6 2 1 -2 -2 -2 -1 4 1 -0 -2 -2 -5 -5 -2 5 6 10 4 -5 -7 -7 -7 -4 -3 1 2
3 7 9 8 -1 4 6 2 1 -2 -3 -3 -3 -5 -5 -5 -5 -3 -3 2 1 0 -0 1 -1 -1 5 -0 -0 1 -2 -6 -3 8 5 3 -4 -7 -5 -5 -6 -5 -4 -2 0
4 5 7 9 7 5 4 2 0 -1 -2 -2 -3 -5 -2 -1 -2 -0 -2 3 2 2 -0 0 2 -1 -3 -3 -1 -1 -2 -3 -4 -2 1 0 -5 -7 -10 -8 -9 -7 -4 -4 -3
5 3 4 4 3 5 6 4 1 -2 -0 0 0 -3 -2 0 -1 0 -1 4 3 3 1 1 5 4 5 0 -1 -0 -2 -3 -4 -6 -5 -5 -5 -9 -7 -6 -6 -7 -6 -3 -4
5 5 3 5 5 7 7 4 1 -1 -1 -2 -1 -1 -1 2 1 3 3 2 1 4 4 5 9 7 6 2 3 5 3 -1 -2 -5 -5 -2 -3 -7 -7 -6 -5 -5 -5 -3 -3

GFSSW_850_dewp_021.txt.gz
Dewpoint
-7 -7 -8 -9 -9 -9 -8 -7 -5 -4 -6 -6 -4 -5 -7 -11 -15 -17 -17 -10 -12 -9 -13 -9 -8 -13 -4 -4 -5 -8 -9 -9 -4 8 7 6 8 7 5 4 5 8 10 11 6
-6 -7 -7 -9 -9 -8 -7 -6 -4 -4 -6 -5 -4 -6 -9 -14 -14 -4 -3 -3 -10 -12 -16 -8 -2 -10 -6 -5 -6 -8 -8 -7 5 8 7 5 5 5 6 7 8 4 12 10 9
-5 -7 -7 -8 -8 -7 -6 -4 -4 -4 -5 -5 -5 -7 -12 -14 1 1 -5 -9 -12 -13 -16 -5 -3 -7 -7 -6 -6 -9 -8 3 5 5 5 6 6 4 4 9 7 3 7 11 11
-3 -8 -7 -8 -7 -6 -5 -3 -3 -4 -5 -5 -6 -10 -13 -10 2 0 -7 -11 -14 -14 -10 -5 -5 -6 -6 -8 -10 -8 -10 -3 4 5 5 7 4 3 2 7 6 4 9 11 10
-1 -6 -8 -8 -7 -6 -4 -2 -3 -4 -5 -5 -8 -11 -12 -0 -1 -0 -6 -8 -15 -10 -6 -5 -3 -6 -7 -9 -9 -9 -9 2 0 1 3 3 3 3 4 5 9 10 10 10 10
1 -3 -7 -7 -6 -4 -3 -2 -2 -4 -5 -7 -9 -11 -7 5 0 -1 -6 -7 -12 -9 -6 -4 -5 -10 -10 -8 -9 -10 -10 2 4 4 2 0 3 3 3 6 9 9 10 9 8
4 -1 -7 -7 -6 -4 -1 -2 -3 -5 -6 -8 -9 -8 -5 -9 -1 -1 -0 -8 -7 -6 -6 -7 -7 -5 -5 -4 -5 -8 -7 -7 2 4 4 -1 4 5 3 7 8 9 8 8 5
6 1 -5 -7 -5 -2 -1 -1 -3 -6 -8 -9 -8 -4 -5 -4 -4 -3 -1 -3 -4 -5 -4 -6 -4 -5 -5 -5 -4 -7 -7 -3 -4 1 2 -0 4 3 4 7 7 7 5 6 5
8 3 -3 -6 -5 -1 -0 -1 -5 -8 -9 -9 -2 7 1 0 -3 -5 -2 -1 -2 -3 -5 -5 -4 -4 -4 -2 -2 -6 -5 -4 -3 -5 -1 -2 -1 4 5 7 5 5 4 4 3
8 4 -0 -6 -4 -1 0 -2 -7 -9 -8 -7 -4 3 -6 -3 -6 -5 -5 -3 -3 -3 -3 -4 -4 -2 -2 -2 0 -4 -6 -5 -2 -4 -5 -4 -3 5 5 3 3 5 4 3 3
9 6 1 -5 -4 0 1 -3 5 6 1 -8 -5 -5 -3 -4 -5 -7 -6 -5 -3 -3 -0 -3 -2 -0 -2 -4 -3 -5 -6 -5 -7 -7 -5 -3 -2 -0 5 4 4 5 7 4 5
9 7 2 -5 -3 1 1 -3 4 4 5 4 5 -3 -2 -2 -4 -5 -6 -4 -2 -0 1 -2 -0 -2 -3 -4 -2 -3 -3 -4 -7 -9 -10 -5 -3 -3 5 6 5 7 4 4 6
8 8 3 -4 -1 1 1 -4 -2 3 5 3 2 -1 -4 -3 -4 -5 -8 -7 -2 0 -2 -0 1 -1 -1 -0 -2 -3 -1 -4 -6 -11 -12 -5 -5 -4 -3 -3 4 3 2 3 6
7 8 3 -3 0 6 4 -5 -9 -1 7 3 2 -4 -7 -5 -4 -7 -7 -7 -3 -1 -3 -1 -1 -1 0 -0 -4 -3 -3 -2 -3 -3 -3 -2 1 2 -0 -2 -2 3 6 6 6
7 8 4 -2 4 5 6 3 3 6 10 -2 -1 -5 -6 -4 -6 -8 -8 -7 -3 -1 -1 1 -1 0 1 -1 -5 -2 -4 -3 -2 -2 2 1 1 2 2 -2 -1 -1 0 4 6
7 8 5 -2 2 3 8 9 8 9 9 0 -3 -4 -4 -5 -5 -7 -8 -8 -3 -1 -2 -1 -4 -1 0 -2 -6 -2 -2 -0 0 0 4 2 4 5 3 -1 1 0 1 2 7
7 8 6 -2 1 5 3 9 9 9 -0 -1 -2 -4 -4 -3 -5 -7 -4 -5 -4 1 1 -1 -2 -1 -1 -0 -2 -1 -1 4 4 7 6 4 4 3 2 0 2 2 -0 2 6
6 8 6 -1 2 8 7 9 10 4 2 -5 -4 -3 -3 -5 -5 -5 -4 -3 -5 -5 1 2 4 2 0 -3 0 0 0 5 7 9 7 5 6 2 -1 0 1 0 0 3 7
7 7 6 -1 2 8 9 10 7 5 -3 -1 -5 -3 -3 -5 -5 -5 -5 -3 -6 -7 2 4 4 2 1 1 -2 -2 1 1 8 8 9 6 1 -1 1 3 4 3 3 6 7
6 6 6 1 1 7 9 7 6 2 1 -3 -1 -4 -2 -4 -4 -4 -4 -6 -5 -6 2 6 5 4 3 2 -3 -3 -3 2 5 6 4 -0 -1 4 1 1 2 5 4 6 6
5 6 5 3 2 7 7 7 5 3 0 1 -1 -4 -4 -3 -3 -3 -3 -5 -3 1 2 4 5 6 4 2 -1 -1 -1 -2 -0 4 6 6 1 -5 -2 -1 -0 4 5 5 5
6 6 3 0 6 5 5 5 4 3 2 2 -3 -4 -4 -2 -2 -3 -2 3 -3 -1 3 3 5 5 3 -1 -3 -3 2 3 4 1 5 4 3 -5 -6 -4 -2 -1 4 5 5
6 5 5 -1 4 5 3 5 5 4 3 2 -0 -2 -2 -2 2 -3 2 3 -0 -1 -0 1 0 3 1 0 1 -1 -2 -4 3 4 3 3 2 -5 -7 -7 -6 -3 -2 4 4
5 6 7 6 -1 2 2 4 6 3 3 1 0 0 -1 -1 0 1 5 2 2 1 -1 1 1 1 3 2 1 2 -0 -1 -1 4 3 3 1 -4 -5 -5 -5 -5 -4 1 3
5 3 5 8 6 1 2 3 5 5 2 0 1 1 0 -2 -2 -0 5 4 3 1 0 2 2 -0 2 2 1 -0 1 0 -1 0 2 1 0 -2 -6 -5 -5 -5 -5 -4 -1
5 3 5 5 5 5 3 4 4 3 2 1 2 -0 -1 -1 2 1 4 4 4 3 2 2 6 3 3 2 2 2 1 -0 -0 -1 -3 -3 -2 -6 -5 -6 -6 -7 -4 -3 -4
4 3 4 6 6 5 2 4 4 2 1 -2 2 2 1 3 2 4 3 5 4 4 4 4 4 4 5 2 1 0 -1 0 -0 -1 -2 -2 -4 -4 -3 -3 -3 -4 -4 -3 -3

GFSSW_850_dewp_024.txt.gz
Dewpoint
-8 -8 -8 -7 -8 -9 -9 -8 -7 -6 -5 -7 -6 -5 -7 -10 -18 -15 -5 -4 -9 -11 -14 -17 -11 -13 -7 -3 -4 -4 -7 -7 -9 7 6 6 8 6 6 6 8 10 11 12 12
-3 -7 -8 -7 -8 -9 -9 -7 -6 -5 -5 -6 -5 -7 -9 -14 -10 -1 -4 -5 -3 -12 -17 -16 -6 -12 -9 -6 -6 -7 -7 -7 -0 7 6 5 6 6 6 7 8 12 12 12 11
1 -3 -7 -7 -8 -9 -8 -7 -5 -4 -5 -5 -6 -8 -11 -16 -3 0 -5 -8 -13 -14 -16 -9 -3 -3 -7 -6 -6 -7 -6 0 5 5 5 5 5 4 8 9 6 12 11 11 10
6 0 -4 -8 -8 -8 -7 -6 -3 -3 -5 -5 -7 -9 -13 -14 2 -3 -4 -9 -15 -16 -12 -9 -5 -5 -6 -6 -7 -7 -9 -0 4 4 5 6 5 3 3 7 5 10 11 11 9
8 6 -2 -8 -8 -8 -7 -4 -2 -2 -4 -6 -8 -10 -13 -8 -5 -0 -7 -8 -16 -10 -7 -7 -3 -3 -5 -8 -9 -8 -3 1 4 5 4 5 4 4 7 5 8 11 11 10 9
9 8 1 -7 -8 -8 -6 -3 -1 -2 -5 -6 -9 -11 -10 0 1 0 -1 -8 -12 -7 -6 -5 -5 -5 -8 -8 -8 -5 1 2 2 2 2 2 4 4 7 7 9 10 11 11 10
8 8 5 -4 -8 -8 -5 -2 -1 -3 -5 -7 -10 -10 -9 -11 -1 -2 -1 -8 -9 -9 -8 -5 -4 -4 -5 -4 -5 -6 1 3 5 3 2 1 3 4 6 7 9 8 9 11 10
4 8 7 -1 -7 -7 -5 -1 -1 -3 -6 -8 -9 -7 -11 -9 -1 -2 -2 -2 -5 -6 -6 -6 -4 -4 -6 -5 -4 -7 -5 2 3 4 2 1 3 3 6 8 9 9 9 9 9
5 7 8 3 -5 -7 -5 -1 -2 -4 -7 -8 -8 1 -5 -2 -4 -6 -3 -2 -2 -3 -3 -4 -4 -4 -5 -3 -2 -4 -5 -4 2 3 2 0 1 2 6 8 9 9 9 6 9
6 5 8 5 -3 -7 -5 -1 -2 -5 -6 -7 -5 -2 -10 -3 -5 -6 -4 -4 -1 -2 -4 -3 -4 -2 -2 -2 -1 -3 -5 -5 -3 -4 1 -2 -1 5 5 7 6 6 6 7 9
5 6 7 6 -2 -7 -4 -0 1 6 3 -9 -7 -10 -6 -4 -4 -5 -6 -4 -2 -3 -2 -2 -2 -1 -2 -2 -2 -3 -2 -5 -6 -6 -4 -2 5 6 6 7 5 5 4 4 7
2 6 7 7 -1 -6 -1 0 4 2 4 2 2 5 -3 -1 -3 -4 -6 -4 -2 -1 0 -1 0 -2 -2 -2 -1 -1 -2 -2 -4 -7 -7 -2 4 6 5 4 3 4 5 5 5
1 5 6 8 0 -6 0 1 3 2 4 2 -1 -0 -5 -4 -3 -4 -5 -5 -1 -0 -1 -1 -2 -1 -1 -1 1 -0 -2 -1 -3 -10 -7 -5 -3 6 5 5 3 4 4 4 4
-0 5 6 8 -0 -3 6 6 -4 -6 6 4 3 -1 -3 -5 -4 -6 -6 -6 -3 -0 -1 -2 -2 -1 -0 0 -0 -0 -3 -2 -3 -4 -5 -4 -0 1 2 5 5 5 5 5 5
2 7 4 8 -3 3 7 7 2 4 4 -1 2 -4 -8 -5 -5 -7 -7 -7 -3 -1 -2 -1 -1 -1 0 -0 -3 -2 -4 -3 -2 -1 -1 -1 -0 -1 0 0 4 5 6 5 4
4 7 7 7 1 -0 7 7 5 7 7 3 -1 -4 -4 -5 -5 -5 -9 -8 -3 -1 -2 -2 -3 -2 -1 -1 -3 -3 -1 1 2 2 4 4 1 0 2 -2 -1 2 5 4 3
5 6 7 7 4 -6 4 6 8 8 1 1 -2 -3 -3 -2 -3 -4 -6 -5 -1 0 0 -2 -2 -2 -1 -1 -2 -1 -1 2 2 5 4 4 3 2 -0 0 -2 -1 0 2 5
6 6 7 7 4 1 5 9 8 5 5 -1 -2 -3 -2 -3 -3 -4 -4 -4 -5 -3 1 1 2 2 1 -0 0 0 -0 3 3 7 5 5 6 2 -1 -1 -1 -2 1 4 6
4 5 6 7 4 5 8 9 6 6 0 -1 -3 -1 -1 -3 -4 -4 -3 -3 -5 -5 -1 4 3 3 2 1 1 2 0 0 6 7 8 6 3 -1 1 2 1 3 3 6 7
3 5 5 6 6 4 8 6 6 4 2 -2 -0 -2 -1 -2 -3 -4 -4 -4 -4 -5 -1 2 3 3 2 0 1 1 -2 2 4 7 7 1 0 3 1 1 2 4 3 6 8
3 5 5 6 6 4 7 5 4 2 3 3 2 0 -3 -2 -3 -2 -4 -6 -5 1 1 3 1 4 3 3 2 1 -1 -1 1 3 4 5 1 -5 0 0 -0 2 3 4 8
3 4 5 6 4 4 6 4 2 3 3 5 3 2 -2 -2 -2 -2 -2 -3 -4 1 2 3 4 6 5 0 0 0 -0 0 3 0 4 4 2 -3 -4 -2 -1 1 3 2 7
3 4 4 4 4 4 4 4 3 2 4 4 3 1 -3 -1 -1 -1 -0 2 0 0 2 2 2 3 2 -2 1 -1 -2 1 2 2 3 3 2 -4 -6 -7 -4 -1 3 2 6
3 5 6 6 3 0 3 4 5 1 2 3 4 3 0 -1 -0 2 4 2 2 1 -1 -0 1 -0 2 -1 -1 1 0 -1 1 3 3 3 -0 -2 -4 -5 -6 -4 -1 4 5
4 3 3 5 5 1 1 3 4 3 3 2 3 4 3 0 2 0 4 3 3 0 1 1 1 0 -0 2 1 -0 0 0 0 -0 1 -0 1 -3 -5 -5 -5 -5 -4 0 4
2 4 3 4 3 3 1 2 2 2 2 2 4 3 2 -1 0 2 5 4 3 2 1 2 2 3 2 2 1 1 -0 0 -0 -1 -0 -2 -1 -4 -5 -6 -5 -4 -4 -3 -1
2 3 3 3 4 4 2 1 0 -1 2 0 1 2 2 0 1 -0 1 1 3 3 4 3 4 3 3 1 -0 3 -0 -1 -1 -1 -1 -0 -3 -2 -2 -2 -3 -3 -3 -3 -1

GFSSW_850_dewp_030.txt.gz
Dewpoint
1 -0 -4 -6 -9 -10 -8 -9 -9 -9 -7 -6 -7 -8 -9 -12 -17 -6 -3 -6 -4 -8 -14 -15 -11 -12 -5 -3 -4 -6 -5 -5 -7 -4 2 6 7 7 7 9 12 12 11 12 12
5 5 4 1 -5 -9 -9 -9 -9 -8 -6 -6 -7 -8 -10 -13 -13 -1 -0 -5 -6 -7 -12 -13 -10 -8 -5 -4 -4 -6 -5 -6 -8 -5 5 5 6 6 8 11 11 11 12 12 12
8 7 7 6 2 -7 -9 -9 -8 -7 -5 -5 -7 -8 -10 -14 -10 -0 -1 -5 -6 -9 -15 -4 -8 -8 -8 -6 -6 -7 -5 -7 -7 2 5 4 5 6 7 8 11 11 12 11 11
9 9 8 7 7 -1 -9 -9 -8 -6 -4 -4 -6 -9 -10 -15 -2 -3 -3 -8 -10 -14 -7 -3 -4 -5 -6 -6 -6 -5 -7 -7 -1 4 5 5 4 6 7 8 10 11 11 11 10
4 6 8 8 7 5 -6 -9 -8 -6 -4 -4 -6 -8 -11 -13 -11 -0 -4 -9 -13 -15 -7 -5 -4 -3 -4 -6 -7 -7 -8 -4 -3 5 5 5 6 8 10 9 7 11 10 9 10
5 4 7 6 6 7 -1 -8 -8 -6 -4 -3 -6 -8 -10 -11 0 -0 -4 -9 -13 -8 -7 -6 -4 -3 -3 -4 -7 -7 -4 2 4 5 5 6 7 7 11 11 9 9 8 4 7
3 4 4 5 3 8 5 -6 -8 -6 -3 -3 -6 -8 -9 -16 -6 1 -2 -5 -10 -7 -6 -6 -4 -4 -4 -5 -4 -2 2 3 4 3 2 4 4 7 11 10 6 7 2 3 5
-2 3 2 4 4 6 7 -3 -7 -6 -3 -3 -6 -8 -11 -18 -8 -1 -3 -3 -8 -9 -8 -5 -4 -4 -4 -5 -5 -5 -2 -1 4 4 3 0 5 7 11 11 9 6 6 5 6
-20 -1 -0 5 5 5 7 -0 -8 -7 -4 -3 -6 -7 -11 -12 -11 -5 -3 -2 -3 -4 -4 -4 -4 -4 -4 -4 -4 -5 -4 -4 3 4 3 1 3 6 11 11 11 9 7 6 7
-30 -17 2 5 6 3 7 1 -8 -4 -2 -3 -1 -5 -15 -6 -2 -2 -2 -3 -2 -2 -3 -3 -3 -3 -3 -3 -2 -2 -2 -3 -2 2 3 3 1 5 8 9 11 11 10 9 8
-29 -29 -5 6 7 4 7 -3 -2 3 4 1 -9 -10 -15 -7 -3 -3 -3 -4 -2 -2 -2 -2 -2 -1 -3 -3 -3 -2 -1 -1 -3 -5 4 4 3 5 6 8 9 10 10 10 9
-22 -28 -3 5 8 6 7 -4 1 2 4 -2 -1 0 -0 0 1 -3 -4 -3 -1 -1 -1 -1 0 -2 -3 -2 -1 -1 -1 -1 -3 -6 1 2 3 4 6 7 8 9 10 9 9
-14 -25 -2 6 7 5 7 -2 1 6 4 -0 -2 -1 -3 -2 -2 -3 -4 -4 -2 -1 0 -0 -3 -2 -1 -2 -2 -1 -1 -0 -1 -6 -4 -1 0 6 5 6 7 8 8 9 8
-3 -18 2 6 6 4 4 6 6 4 2 0 3 -0 -1 -3 -2 -5 -4 -4 -2 -2 -0 -0 -3 -2 -1 -1 -1 -0 -2 -1 -2 -5 -3 -4 -1 -2 6 6 5 6 7 7 8
1 -12 3 6 6 2 5 4 1 3 -0 -5 3 -0 -1 -3 -4 -4 -4 -4 -2 -1 -2 -1 -1 -1 -1 -1 -2 -1 -2 -1 -2 -1 -1 0 -0 -2 4 7 6 5 5 6 6
2 -2 3 5 6 2 6 5 5 5 -1 -5 1 1 -2 -4 -4 -4 -4 -5 -5 -2 -2 -2 -3 -2 -2 -2 -2 -3 -2 -2 0 1 3 2 1 1 2 4 5 5 5 6 4
1 2 3 5 6 4 5 4 9 6 -4 -3 3 -2 -3 -3 -3 -5 -4 -2 -2 -0 0 -2 -2 -2 -1 -1 -2 -2 -2 0 -0 4 4 2 3 1 -2 -2 1 3 4 4 4
1 2 1 4 5 6 6 7 8 4 1 1 -1 -2 -2 -4 -4 -3 -4 -2 -4 -3 -0 0 -0 0 -1 -2 -1 -1 -1 2 -1 4 1 3 3 -1 -1 -2 -1 -2 -2 -2 1
1 2 1 4 5 6 6 7 5 3 2 -0 -2 -2 -2 -3 -3 -3 -3 -3 -3 -3 -2 1 0 1 1 0 -1 0 1 -1 5 5 6 3 1 -3 -2 1 2 1 -0 -1 -0
0 1 1 3 5 6 6 5 4 1 3 3 -1 -1 0 -1 -3 -2 -2 -4 -4 -3 -3 -0 -1 1 1 1 0 -1 0 3 3 5 5 3 1 -1 -3 0 2 3 3 1 1
1 1 0 2 5 5 5 4 3 3 2 4 5 3 -1 -1 -2 -1 -2 -4 -4 -5 -3 -0 -3 -2 2 1 -1 1 1 1 1 2 3 4 2 -2 -4 -2 -1 0 1 1 2
1 1 -0 2 5 4 4 2 1 3 2 3 4 5 3 -1 -1 -2 -2 -3 -5 -1 -1 -0 -1 0 -0 -1 -1 -1 0 1 3 1 3 3 2 -4 -5 -5 -3 -4 -2 -2 0
1 1 1 1 4 4 2 3 2 2 3 4 4 4 2 -1 -2 -1 -2 -4 -3 -2 0 1 0 2 0 -1 -1 1 0 0 1 1 3 3 2 -5 -4 -5 -6 -6 -5 -3 -1
1 2 3 3 1 1 3 3 2 2 2 2 3 4 3 3 -0 -2 -2 2 -1 -2 -2 -2 1 -0 1 -1 -1 1 0 1 1 3 2 2 -0 -3 -4 -4 -5 -6 -7 -6 -3
0 1 1 4 3 2 1 2 3 2 2 2 3 4 3 4 1 2 3 3 2 2 0 -1 -0 0 -1 -2 -1 0 0 1 1 0 2 1 0 -2 -3 -3 -5 -5 -6 -6 -4
0 1 0 2 1 2 3 2 2 2 2 3 3 3 4 5 2 0 3 3 2 2 1 0 1 -0 1 1 1 1 0 0 0 -0 -0 -1 -1 -3 -4 -4 -3 -4 -1 1 2
0 1 2 1 2 2 2 2 1 2 1 1 1 2 3 2 0 -0 -0 1 2 2 3 1 2 2 2 2 0 3 1 0 -0 -1 -1 1 -1 -3 -2 -2 -2 -2 0 1 1

GFSSW_850_dewp_033.txt.gz
Dewpoint
6 5 5 5 3 -1 -9 -9 -9 -9 -9 -8 -7 -9 -11 -12 -16 -5 -3 -5 -6 -8 -13 -12 -7 -7 -5 -4 -5 -6 -5 -5 -6 -7 -1 6 6 7 8 11 11 11 12 11 12
9 8 7 7 7 5 -3 -9 -9 -9 -8 -8 -7 -8 -11 -12 -14 -1 0 -2 -7 -7 -12 -14 -12 -8 -5 -4 -4 -5 -4 -5 -7 -8 3 5 6 7 9 11 11 11 11 11 12
9 9 9 8 8 7 5 -6 -9 -9 -8 -7 -6 -8 -10 -13 -10 -0 -1 -4 -8 -11 -14 -8 -12 -7 -8 -6 -5 -6 -4 -6 -7 -6 4 4 5 7 9 9 10 11 11 11 11
5 6 9 8 8 8 7 1 -8 -9 -8 -6 -6 -8 -11 -13 -2 -3 -2 -9 -9 -14 -5 -7 -6 -5 -5 -5 -6 -5 -6 -7 -3 3 5 4 4 7 7 8 9 12 11 11 11
6 6 5 5 7 6 7 7 -4 -8 -7 -6 -4 -7 -10 -11 -16 -0 -4 -10 -11 -11 -5 -5 -4 -4 -4 -6 -6 -5 -7 -6 -4 2 5 4 6 8 10 11 11 11 11 10 10
1 5 6 5 7 5 5 8 2 -7 -8 -6 -4 -6 -8 -8 -8 0 -6 -11 -12 -10 -6 -5 -4 -3 -3 -3 -6 -6 -4 2 4 5 5 8 9 8 10 10 11 11 10 10 10
-17 -3 4 6 4 5 4 7 5 -5 -8 -6 -3 -4 -8 -13 -14 1 -3 -9 -10 -7 -7 -6 -4 -4 -4 -3 -5 -2 2 3 3 5 4 5 4 9 10 9 11 11 9 9 8
-28 -27 -7 2 5 4 6 6 7 -2 -8 -7 -3 -3 -10 -16 -16 -1 -1 -3 -9 -8 -7 -6 -4 -4 -4 -4 -5 -4 -2 -1 3 4 4 1 5 10 10 9 9 9 9 7 8
-28 -28 -25 -5 1 6 7 4 7 -1 -8 -5 -3 -4 -10 -14 -15 -7 -2 -2 -5 -6 -5 -4 -4 -4 -4 -3 -3 -3 -4 -3 2 4 3 2 4 9 10 10 8 9 4 7 6
-20 -27 -28 -9 -6 6 5 4 5 -4 -3 -1 -0 -3 -8 -9 -4 -3 -4 -3 -2 -2 -3 -3 -3 -2 -3 -3 -1 -1 -1 -2 -1 2 3 3 2 8 11 10 9 9 9 6 5
-16 -14 -26 -17 1 5 6 6 -3 -1 3 -1 -4 -7 -12 -8 -3 -3 -2 -1 -1 -2 -1 -2 -1 -1 -4 -2 -3 -2 -1 -1 -2 -5 3 4 3 7 10 11 11 10 10 9 6
-11 -17 -19 -20 3 6 6 6 0 3 4 -1 -3 0 -2 -4 -1 -2 -3 -1 -1 0 -1 -0 2 -2 -4 -2 -1 -0 -0 -1 -2 -4 1 0 4 4 7 9 9 9 10 9 8
2 -6 -15 -12 4 5 6 4 4 3 6 3 -3 -3 -4 -2 -2 -2 -3 -2 -1 -0 0 1 -3 -2 -1 -1 -0 -1 -1 -0 -1 -5 -3 -1 1 5 6 6 7 8 9 9 8
2 1 -6 2 0 2 4 3 5 6 3 -1 1 -0 -1 -3 -1 -4 -4 -3 -2 -0 0 -0 -2 -2 -1 -1 -1 -0 -2 -2 -1 -3 -3 -3 -2 -3 6 7 6 7 8 8 8
2 2 -2 3 4 4 4 5 3 4 2 -4 3 1 1 -2 -5 -2 -4 -4 -0 -0 -0 0 -1 -0 0 -1 -1 -1 -2 -1 -2 -2 1 1 -1 -2 3 6 7 6 6 7 7
2 2 2 2 5 3 5 5 5 4 4 -6 2 3 3 -1 -4 -3 -4 -5 -4 -1 -2 -1 -3 -2 -2 -2 -2 -2 -1 -2 0 1 3 2 1 -0 -1 2 4 5 6 6 6
1 1 2 1 4 2 6 6 7 7 -2 -4 2 0 1 -2 -3 -4 -2 -1 -1 1 1 -1 -1 -3 -2 -1 -1 -2 -0 2 -1 4 3 3 3 1 -2 -3 -1 1 4 5 5
1 1 1 1 4 2 6 6 7 3 1 -1 -1 -1 1 -3 -3 -3 -2 -1 -3 -3 -0 -0 1 -0 -1 -1 -1 0 0 3 2 2 -0 3 4 -3 -2 -2 -1 -1 -2 -1 3
2 0 1 1 3 5 6 7 4 4 1 -1 -3 0 -1 -3 -3 -2 -1 -1 -2 -2 -1 2 -0 -0 1 0 -2 0 1 -1 5 5 6 3 0 -2 -4 -2 1 2 1 -0 -1
1 1 0 1 3 5 5 3 4 1 2 3 -2 -1 1 -1 -1 -2 -1 -2 -2 -3 -3 1 0 1 1 1 1 0 -0 3 4 5 6 3 2 -0 -2 -3 -1 1 1 0 -0
1 1 -1 0 2 4 4 3 2 2 2 4 5 3 0 0 -1 -0 -1 -4 -3 -4 -3 0 -0 -1 2 2 1 1 2 1 2 3 4 4 1 -1 -2 -4 -0 -1 -2 -1 -1
0 1 -1 -0 2 3 3 2 1 0 2 3 4 5 5 -0 -0 0 -0 -2 -5 -3 -1 0 2 3 0 -1 -2 -0 2 2 5 3 3 4 2 -3 -2 -4 -4 -2 -5 -2 -1
-0 0 -0 -1 2 2 1 1 1 2 2 4 4 4 3 1 -1 -1 -1 -4 -4 -2 0 1 1 2 -0 -1 0 2 1 0 1 2 4 8 2 -4 -4 -4 -4 -5 -6 -4 -3
0 1 2 2 -0 1 2 1 2 1 1 2 4 3 3 3 1 -2 -0 -1 -2 -2 -3 -2 2 1 1 -0 0 3 1 1 2 4 4 3 1 -2 -2 -3 -4 -4 -5 -6 -6
0 1 2 2 1 2 1 -0 2 3 1 2 3 4 4 3 2 1 0 3 2 1 0 1 2 1 -1 -2 -0 1 1 2 1 2 4 2 0 -1 -2 -2 -3 -5 -5 -5 -4
0 1 -0 1 -1 0 1 2 1 1 1 3 1 2 3 5 2 3 3 3 3 3 2 1 2 1 0 1 -0 1 0 1 1 0 0 -0 0 -2 -3 -4 -3 -3 -1 2 2
-0 -2 -2 -1 1 1 -0 1 1 1 1 -0 2 3 3 2 2 2 1 -0 2 3 3 2 4 3 3 2 2 4 3 1 1 0 1 2 0 -2 -2 -2 -2 1 2 2 2

GFSSW_850_dewp_039.txt.gz
Dewpoint
8 9 9 8 8 6 6 6 6 3 -7 -9 -9 -8 -8 -9 -13 -9 -2 -1 -5 -9 -14 -5 -4 -5 -6 -7 -8 -9 -8 -9 -7 -6 -3 -1 2 6 7 7 9 11 13 12 12
7 8 8 8 8 8 6 6 6 6 2 -7 -9 -9 -8 -9 -13 -3 -0 -2 -7 -10 -5 -6 -7 -6 -8 -7 -8 -9 -8 -9 -9 -9 -7 -5 1 4 5 6 9 12 11 12 12
1 4 4 4 3 5 6 6 6 5 5 1 -8 -9 -8 -9 -3 -3 0 -3 -9 -11 -5 -9 -10 -8 -9 -9 -9 -8 -6 -9 -10 -6 -6 -4 0 4 4 5 8 11 11 11 11
-13 -1 2 3 2 3 2 1 2 2 2 4 -3 -9 -8 -9 -5 2 -2 -5 -11 -17 -7 -8 -10 -9 -8 -8 -8 -7 -8 -8 -8 -7 -4 -0 2 3 6 8 10 11 12 11 11
-24 -20 -13 -9 -1 0 2 0 -1 0 -0 3 2 -8 -9 -0 -5 -6 -3 -8 -12 -9 -6 -9 -8 -7 -7 -8 -8 -7 -7 -6 -4 -3 -1 2 2 4 7 10 11 11 11 11 11
-25 -25 -26 -26 -14 -4 -1 -2 -2 -0 -1 3 4 -6 1 -1 -5 -9 -1 -11 -4 -4 -4 -5 -5 -5 -5 -6 -6 -6 -6 -3 -2 -0 2 2 3 4 7 9 10 11 11 11 11
-23 -22 -26 -27 -28 -21 -10 -9 -4 -1 -1 3 5 -1 1 -2 -4 -1 -2 -3 -4 -4 -5 -5 -4 -4 -5 -6 -6 -6 -3 -3 -2 -0 1 2 4 4 7 8 8 6 8 7 10
-11 -20 -21 -25 -28 -29 -25 -13 -10 -5 -2 -0 5 -3 1 -3 -6 -1 -1 -4 -4 -4 -4 -5 -4 -3 -4 -6 -6 -6 -4 1 -2 -2 -1 4 8 5 6 6 5 5 7 7 9
1 -8 -19 -23 -26 -28 -28 -18 -19 -11 -3 -3 3 -1 -1 -3 -7 -5 0 -3 -5 -4 -4 -4 -4 -4 -5 -5 -5 -6 -3 -0 -0 -2 -1 4 8 4 5 5 4 5 5 5 8
3 2 -6 -20 -23 -26 -29 -19 -12 -8 -2 -1 4 3 -0 -6 -8 -9 1 -2 -3 -4 -5 -4 -4 -4 -6 -6 -4 -5 -5 -3 6 -0 -1 -1 0 4 4 5 5 3 2 3 6
3 3 2 -5 -18 -21 -26 4 3 5 5 -0 -1 -5 -8 -7 -3 -5 -4 -1 -3 -5 -4 -4 -2 -2 -6 -7 -9 -5 -6 -5 -1 -2 -1 -1 -2 3 5 4 5 5 3 4 4
3 2 3 2 -8 -16 -12 1 1 4 -0 -2 -2 -2 -3 -5 -3 -6 -3 -2 -3 -2 -4 -2 -0 -5 -7 -9 -8 -5 -5 -6 -6 -6 -4 -4 -5 -4 4 4 4 4 4 3 3
2 3 2 2 -1 -13 -4 2 4 5 1 -4 -3 -3 -5 -4 -5 -6 -2 -3 -3 -2 -3 -1 -4 -6 -5 -7 -6 -5 -4 -5 -4 -4 -5 -5 -5 -6 -1 3 5 4 4 4 3
-0 3 2 2 -2 -0 3 2 3 6 2 -6 -2 -2 -2 -4 -4 -7 -4 -3 -3 -2 -3 -3 -5 -4 -6 -6 -6 -4 -7 -4 -4 -3 -2 -4 -1 -0 -4 0 3 4 4 3 3
-3 1 2 1 4 4 5 6 5 7 -1 -8 -5 -1 -3 -4 -9 -6 -5 -5 -3 -3 -3 -2 -3 -2 -4 -4 -5 -3 -3 -4 -3 -3 -2 -4 -4 -2 -7 -3 -1 1 3 3 2
-2 -3 1 2 2 3 6 7 7 4 -1 -7 -2 -1 -0 -3 -8 -7 -6 -4 -5 -4 -4 -4 -6 -5 -5 -6 -5 -5 -2 -3 -3 -2 1 -3 -3 -2 -3 -6 -7 -4 -0 2 2
-2 -2 -2 2 1 1 5 6 3 -2 -10 -8 -5 -1 -1 -1 -4 -7 -5 -2 -2 -1 -1 -3 -3 -6 -5 -2 -4 -3 -2 2 2 2 2 -3 -2 -4 1 -7 -7 -7 -4 0 1
-2 -1 -2 1 2 3 5 6 -2 -10 -8 -6 -7 -1 0 -3 -3 -5 -4 -3 -4 -4 -2 -1 0 -4 -4 -4 -3 -2 -2 2 10 4 1 -1 -2 -5 -7 -7 -7 -7 -5 -5 0
-1 -0 1 0 1 3 3 5 0 -10 -12 -9 -4 -0 0 -3 -4 -4 -4 -4 -5 -5 -2 -2 -2 -6 -5 -5 -5 -2 -1 -3 2 1 2 -2 -4 -6 -9 -8 -7 -6 -2 -1 -3
0 1 1 1 1 2 3 4 -1 -10 -15 -12 -6 -4 -1 -1 -4 -4 -3 -6 -6 -6 -6 -4 -2 -5 -4 -5 -4 -3 -2 1 0 4 5 -1 -2 -4 -5 -7 -7 -8 -6 -2 -1
1 2 -0 0 2 2 3 2 -1 -7 -12 -13 -6 -6 -5 -2 -3 -4 -3 -6 -7 -6 -7 -5 -3 -3 -2 -0 -2 -1 1 -1 -1 1 4 4 -1 -5 -5 -6 -7 -7 -7 -6 -4
1 2 -0 -0 2 2 2 -1 -5 -4 -7 -8 -5 -4 -5 -5 -1 -3 -4 -5 -7 -7 -4 -3 -3 -0 0 -4 -5 -3 -2 -1 4 2 2 2 1 -6 -6 -6 -6 -6 -5 -5 -3
1 1 1 1 2 3 -1 -1 -4 -6 -6 -6 -4 -2 -1 -3 -1 -1 -4 -7 -5 -5 -3 -2 -1 2 -1 -1 -2 -1 -1 -2 -1 -0 3 8 2 -6 -6 -6 -7 -7 -6 -5 -4
1 2 2 2 1 -0 -1 -1 -3 -8 -7 -6 -6 -4 -3 0 -1 -1 -1 -4 -3 -4 -4 -2 -3 -1 2 -2 -3 -1 -3 -4 -3 4 2 1 -2 -3 -5 -5 -6 -7 -5 -4 -4
1 1 1 2 2 0 -3 -4 -4 -6 -6 -7 -4 -5 -3 -2 -2 0 -1 -1 -0 -3 -2 -1 2 -2 -4 -5 -6 -5 -4 -4 -3 -2 1 -1 -2 -3 -4 -6 -7 -4 -4 -5 -4
0 -2 1 -1 0 -1 -1 -3 -5 -7 -8 -3 -4 -5 -2 0 -0 6 2 2 0 -2 -1 -1 1 -0 -2 -5 -6 -5 -6 -7 -7 -6 -5 -5 -5 -6 -7 -8 -7 -6 -4 -3 -1
-0 -3 -3 -2 1 0 0 -2 -5 -7 -8 -7 -6 -5 -2 0 5 3 2 3 2 3 1 0 3 2 2 -3 -3 1 -4 -5 -6 -7 -5 -2 -4 -6 -5 -7 -6 -5 -4 -1 1

GFSSW_850_dewp_042.txt.gz
Dewpoint
5 5 6 8 8 7 7 4 6 6 6 5 2 -8 -10 -10 -11 -14 -4 1 -0 -6 -11 -4 -3 -4 -5 -6 -9 -9 -8 -7 -7 -7 -3 -2 4 4 3 4 11 12 12 12 12
-1 -2 1 4 5 5 4 5 5 6 6 4 4 0 -9 -10 -10 -13 -5 -1 -3 -9 -14 -5 -7 -6 -7 -8 -9 -10 -6 -7 -10 -10 -7 -8 -2 6 6 3 10 8 11 12 13
-16 -13 -10 1 2 2 2 1 -0 -0 2 2 0 2 -4 -10 -5 -0 -4 -2 -5 -11 -6 -5 -9 -9 -8 -9 -10 -10 -7 -8 -10 -7 -7 -7 3 2 4 9 10 6 11 12 12
-26 -25 -19 -14 -6 -4 -2 -1 0 -1 -2 -0 -2 2 -1 -9 -1 2 -2 -4 -7 -12 -8 -9 -9 -10 -9 -8 -9 -9 -10 -9 -9 -8 -6 -7 1 6 8 10 11 11 12 11 11
-25 -26 -26 -26 -27 -28 -20 -8 -3 -3 -3 -3 -4 2 0 2 -0 0 -5 -9 -10 -15 -3 -10 -10 -10 -7 -8 -9 -8 -9 -8 -7 -4 -5 -2 0 2 8 10 11 11 11 11 11
-19 -24 -26 -27 -29 -29 -27 -20 -11 -8 -4 -3 -4 -1 5 2 -3 -4 -4 -9 -10 -8 -6 -8 -7 -6 -5 -5 -8 -7 -6 -8 -5 -5 -3 0 7 6 10 10 10 10 11 10 10
-2 -9 -19 -25 -27 -29 -30 -31 -29 -15 -9 -7 -3 1 5 1 -4 -4 0 -2 -6 -6 -5 -6 -6 -4 -6 -4 -7 -8 -6 -7 -4 -3 -1 2 4 7 6 8 7 8 9 7 9
3 1 -3 -22 -25 -25 -30 -31 -30 -19 -16 -9 -3 1 4 -6 -3 -3 -2 -1 -5 -6 -5 -5 -5 -4 -4 -4 -5 -6 -7 -3 -1 -1 2 2 6 3 4 6 5 5 7 9 8
3 3 1 -6 -19 -25 -28 -30 -29 -18 -14 -6 -1 4 -0 -3 -2 -6 -3 -2 -5 -5 -4 -4 -5 -5 -5 -4 -4 -6 -4 -4 -1 -3 1 3 8 5 5 5 5 6 8 9 10
2 3 3 1 -4 -21 -27 -29 -22 -3 4 4 5 3 1 -4 -5 -5 -5 -2 -5 -5 -4 -4 -6 -5 -5 -4 -1 -3 -2 -2 1 0 -2 6 8 7 7 3 3 4 3 6 8
-0 1 3 3 2 -12 -23 -27 1 7 7 3 1 -3 -1 -4 -5 -8 -7 -1 -3 -5 -3 -5 -4 -4 -5 -5 -7 -7 -4 -2 0 1 0 2 7 8 7 4 3 2 1 4 6
-2 -1 2 2 3 -3 -9 1 -4 3 3 -3 -6 -4 -3 -3 -5 -5 -9 -1 -2 -2 -4 -4 -2 -3 -5 -5 -7 -7 -6 -4 -7 -4 -5 -5 -4 4 3 4 4 4 3 4 6
-0 -2 1 2 2 -2 -7 -6 1 3 2 -5 -8 -9 -7 -5 -4 -5 -7 -4 -3 -3 -3 -3 -3 -4 -4 -5 -6 -7 -6 -5 -2 -2 -4 -5 -4 -5 3 2 4 4 4 3 4
-3 -1 -0 3 -1 2 -1 -0 1 3 2 -11 -13 -5 -7 -5 -6 -7 -7 -5 -4 -4 -4 -3 -5 -4 -3 -4 -7 -6 -8 -5 -3 -2 -2 -4 1 -3 2 2 3 3 3 3 2
-1 -2 -3 2 2 3 6 5 4 7 -5 -15 -9 -4 -3 -4 -7 -6 -7 -4 -3 -5 -4 -2 -3 -4 -2 -6 -9 -6 -3 -2 -3 -4 -1 -3 -2 -6 -4 -1 3 4 3 3 3
-0 -2 -2 -2 2 -1 5 4 5 2 -2 -11 -3 -3 -3 -3 -5 -6 -7 -6 -4 -4 -4 -4 -5 -5 -4 -7 -7 -6 -2 -1 -3 -2 3 -1 -3 -0 1 1 -2 -0 3 3 3
-1 -1 -2 1 2 1 2 4 3 -2 -15 -15 -5 -2 -2 -2 -3 -4 -5 -4 -2 -0 0 -3 -4 -5 -6 -5 -6 -5 -2 2 3 4 5 -1 -3 -3 1 -1 -2 -3 -3 2 3
-0 -0 -2 0 -0 4 3 6 -2 -13 -9 -10 -10 -8 -1 -2 -2 -3 -4 -3 -3 -3 -2 -1 1 -4 -5 -4 -3 -2 -2 3 10 11 6 2 0 -4 -4 -6 -7 -7 -7 -3 2
-0 1 -0 1 -0 2 3 5 -1 -9 -14 -10 -9 -5 -3 -1 -3 -3 -4 -3 -4 -3 -1 0 -1 -6 -5 -6 -4 -2 -0 -3 8 9 9 8 -1 -8 -7 -8 -8 -8 -5 -4 -4
1 1 1 -0 -0 2 3 4 -2 -9 -12 -13 -8 -10 -3 -1 -2 -2 -3 -5 -4 -4 -4 -2 1 -3 -5 -5 -5 -4 -3 3 3 8 9 0 -2 -2 -3 -7 -7 -7 -6 -2 -2
1 1 1 -0 0 2 2 2 -2 -5 -10 -9 -7 -8 -9 -4 -1 -2 -2 -5 -5 -5 -5 -3 -0 1 -3 -3 -3 -3 -1 1 2 2 7 6 2 2 2 2 -5 -7 -7 -6 -4
1 2 1 0 2 2 2 -1 -3 -4 -7 -7 -7 -7 -9 -6 -4 1 -1 -4 -6 -5 -3 -4 -0 2 0 -4 -4 -4 -2 -1 5 3 6 10 4 -4 -2 -1 -5 -5 -6 -6 -5
1 1 1 0 2 1 1 -0 -4 -4 -5 -6 -6 -6 -6 -3 0 -2 -2 -1 -6 -4 -3 -2 -1 4 1 -1 -3 -2 -3 -2 -1 2 5 9 5 -5 -5 -6 -6 -7 -7 -6 -5
1 1 2 2 -1 -0 1 1 -2 -5 -4 -6 -8 -7 -5 -2 -0 3 1 -1 -3 -4 -4 -0 -0 1 4 1 -0 -0 -3 -0 2 6 5 6 3 0 -2 -1 -1 -4 -7 -7 -5
1 2 1 2 2 0 -1 -3 -2 -3 -5 -5 -5 -6 -5 -1 0 2 3 2 0 -2 -3 1 2 0 -0 -3 -3 -1 -2 -3 -0 2 3 2 -1 -3 -4 0 1 -1 -4 -4 -5
-0 1 -1 -2 0 1 0 -0 -3 -4 -5 -4 -3 -6 -6 -4 -1 2 5 2 4 1 0 1 2 2 3 -1 -3 -2 -4 -3 -4 -4 -4 -4 -2 -5 -6 -2 -2 -3 -6 -4 -4
1 -0 -1 -1 1 1 1 0 -1 -4 -5 -7 -5 -5 -5 -6 -6 5 5 5 6 7 2 2 3 4 5 1 -0 2 -1 -4 -3 -5 -5 -3 -4 -6 -6 -5 -2 -4 -7 -6 -4

GFSSW_850_dewp_045.txt.gz
Dewpoint
-4 -2 0 -3 -1 2 1 3 2 2 3 4 3 3 2 0 -6 -9 -10 -8 -1 -1 -8 -12 -6 -6 -4 -4 -6 -7 -7 -6 -6 -7 -2 1 7 5 5 9 9 12 12 12 11
-22 -19 -18 -16 -13 -6 -1 -2 -2 -4 -4 -2 0 -0 -3 -0 -4 -8 -8 -5 -0 -2 -10 -9 -6 -6 -5 -6 -6 -8 -6 -7 -8 -7 -6 3 5 6 6 6 8 11 11 11 11
-24 -26 -28 -26 -23 -17 -10 -8 -6 -7 -7 -8 -7 -6 -6 -3 -5 0 -3 -5 -4 -5 -13 -3 -5 -8 -8 -7 -7 -8 -7 -9 -9 -7 -6 -6 4 6 6 7 8 9 11 11 11
-19 -25 -27 -28 -28 -28 -29 -30 -25 -16 -10 -8 -8 -9 -11 -3 2 -1 -3 -4 -4 -7 -14 -6 -9 -9 -9 -8 -10 -8 -10 -10 -8 -5 -5 1 5 8 9 11 11 11 10 10 10
-6 -16 -23 -27 -29 -30 -31 -32 -31 -24 -15 -11 -9 -7 -11 2 -1 -5 -1 -5 -8 -8 -14 -10 -9 -9 -7 -8 -6 -8 -9 -8 -8 -7 -4 3 8 9 10 9 10 10 10 11 10
3 -3 -14 -22 -28 -28 -30 -31 -32 -32 -27 -14 -8 -9 -1 5 -8 -2 -3 -5 -10 -9 -16 -6 -7 -10 -6 -4 -4 -6 -7 -7 -7 -7 -2 4 5 4 9 10 10 10 11 10 10
2 3 -0 -9 -22 -28 -28 -30 -32 -32 -24 -15 -9 -2 -0 -11 -11 -2 -0 0 -6 -9 -7 -6 -6 -6 -5 -3 -4 -4 -5 -7 -8 -3 1 3 4 4 5 6 9 10 9 9 9
2 2 3 1 -14 -23 -27 -29 -31 -31 -23 -16 -9 1 2 -26 -3 -10 -4 -1 -1 -5 -5 -6 -5 -5 -5 -4 -4 -3 -4 -3 -7 -1 2 1 5 4 3 5 7 7 8 8 9
1 2 2 2 0 -13 -23 -29 -31 -30 -15 1 -1 2 4 -5 -7 -13 -6 -3 -1 -4 -5 -6 -5 -5 -4 -3 -2 -3 -2 -4 -3 -1 2 3 6 4 3 5 6 6 8 9 9
-2 -1 1 1 2 -1 -17 -27 -32 -28 -9 6 4 6 -2 -8 -7 -6 -8 -5 -1 -5 -6 -4 -4 -3 -4 -2 1 -0 -2 -3 -0 1 3 5 5 4 3 6 5 7 8 9 9
-0 -1 -2 -0 1 2 -10 -21 -5 4 6 6 3 -5 -5 -5 -2 -6 -7 -4 -2 -4 -3 -4 -2 -1 -3 -4 -3 -4 -4 -4 -0 0 2 6 6 4 3 6 5 7 6 9 9
-1 -0 -1 -2 1 2 -3 -9 -8 1 3 3 3 4 3 -2 -1 -3 -7 -6 -1 -0 -3 -2 -1 -3 -5 -5 -4 -2 -3 -5 -3 -1 1 1 6 4 5 7 4 3 6 7 9
-0 -2 -1 -1 0 0 -3 -8 -17 -4 3 -1 -3 -3 -10 -13 -7 -6 -4 -7 -0 0 -1 -1 -2 -4 -4 -2 -2 -3 -5 -5 -4 -2 -3 -3 -0 6 6 7 4 2 1 3 7
1 -1 -3 -1 -1 3 2 5 1 2 6 -1 -9 -7 -7 -9 -5 -9 -4 -7 -1 0 -1 -1 -4 -3 -3 -2 -3 -3 -6 -4 -1 -1 1 -3 2 7 7 7 5 3 2 3 6
1 1 -2 -2 1 2 4 6 5 5 -5 -11 -11 -14 -11 -8 -6 -5 -8 -6 -3 -2 -2 -1 -2 -2 -1 -2 -3 -2 -3 -3 -1 1 -1 -1 2 1 5 7 6 5 4 4 5
-1 -0 0 -1 -2 -2 2 5 5 5 6 -9 -3 -3 -2 -7 -6 -5 -6 -6 -6 -3 -3 -3 -5 -4 -3 -3 -4 -6 -1 -1 0 1 3 0 1 0 4 1 4 4 5 4 4
-0 -1 0 -1 -2 -1 2 3 6 5 -14 -16 -1 -2 -1 -1 -3 -4 -4 -4 -3 1 1 -1 -3 -4 -5 -2 -4 -4 -1 4 4 5 5 5 5 1 -1 -1 2 1 4 4 3
1 -0 0 -0 -3 -1 3 4 5 -8 -6 -10 -11 -7 0 -2 -1 -1 -2 -1 -5 -2 0 1 2 -3 -4 -3 -3 -2 -1 5 6 8 8 6 7 1 -2 -3 -4 -2 3 4 3
1 1 1 0 -3 0 3 4 0 -5 -11 -15 -15 -11 -0 -0 -1 -1 -1 -1 -3 -5 -0 1 0 -4 -5 -5 -4 -1 1 0 9 8 9 8 6 2 -2 -3 -8 -7 -5 2 3
2 1 1 -0 -1 -0 3 3 0 -3 -8 -10 -8 -8 -5 -1 1 0 -0 -3 -2 -5 -4 -1 2 -2 -3 -5 -4 -3 -2 3 7 10 11 8 7 4 -1 -1 -5 -7 -7 -5 -0
2 2 1 -0 1 1 2 2 -1 -3 -3 -4 -8 -7 -7 -5 -6 -2 -0 -3 -4 -4 -4 -3 -1 1 -1 -0 -1 -1 -1 -0 5 6 7 6 4 2 1 0 -2 -4 -4 -3 -3
2 2 0 -0 2 1 1 -0 -2 -5 -4 -3 -3 -5 -5 -4 -4 -4 3 1 -4 -3 -2 -3 0 1 0 -2 -2 -2 -2 0 6 6 6 6 5 -1 -1 -1 -4 -5 -6 -5 -3
1 1 1 -1 2 1 -1 -0 -2 -1 -2 -3 -2 -4 -5 -4 -3 -0 2 2 2 0 -3 -3 -1 2 2 -1 -1 -1 -2 -2 0 4 6 7 6 -1 -2 -2 -3 -5 -6 -5 -5
1 1 2 2 -1 -0 -0 -0 1 -2 -1 -2 -4 -4 -5 -4 -5 2 3 3 2 4 3 -2 -1 -0 2 1 1 2 0 -1 -1 5 4 6 4 2 0 -0 -3 -1 -2 -2 -5
1 1 1 2 2 -0 -1 -2 -0 0 -2 -4 -4 -3 -3 -2 -2 -1 2 3 3 2 4 3 1 0 -2 -1 -0 1 1 -1 -1 -0 5 4 3 0 -1 -2 -2 -1 -1 -2 -3
-0 1 0 -1 0 1 0 -1 -1 -2 -2 -2 -3 -3 -4 -3 -4 -2 3 5 6 6 7 5 4 2 2 -0 -1 -0 -1 -1 -1 0 3 2 1 -1 -2 -2 -1 -2 -2 -2 -4
1 0 -0 -0 2 2 1 -0 -1 -2 -3 -4 -3 -3 -2 -3 -5 -1 4 5 6 7 7 7 6 4 3 2 1 4 1 -1 -1 -1 -1 2 -1 -4 -4 -1 -1 -2 -3 -3 -5

GFSSW_850_dewp_048.txt.gz
Dewpoint
-20 -20 -22 -20 -21 -16 -14 -10 -4 -4 -5 -6 -6 -5 -3 -3 -4 -5 -5 -8 -7 -8 -4 -12 -10 -8 -5 -4 -5 -5 -5 -5 -7 -7 -4 3 5 7 5 6 7 9 11 11 12
-20 -24 -25 -28 -28 -27 -24 -20 -12 -10 -12 -11 -14 -12 -13 -11 -7 -7 -3 -9 -1 -1 -6 -13 -8 -5 -4 -5 -6 -7 -6 -6 -8 -8 1 4 3 5 4 7 8 10 10 11 11
-12 -17 -24 -26 -27 -29 -29 -29 -30 -30 -26 -20 -17 -17 -17 -15 -10 -5 -3 -5 -4 -3 -5 -10 -5 -4 -6 -6 -6 -7 -6 -7 -8 -7 1 5 6 6 5 10 9 8 9 11 11
0 -6 -20 -23 -26 -27 -29 -31 -31 -32 -30 -25 -21 -19 -18 -14 -6 -0 -2 -2 -3 -2 -6 -11 -5 -8 -9 -9 -10 -8 -9 -8 -9 -5 2 5 8 9 7 6 7 8 9 10 9
1 1 -6 -17 -21 -25 -27 -29 -31 -31 -31 -30 -24 -16 -16 -1 -10 -11 -9 -1 -3 -4 -7 -13 -8 -8 -8 -8 -7 -5 -7 -6 -7 -2 6 5 9 9 10 10 10 10 9 10 9
0 2 -2 -9 -10 -20 -24 -28 -29 -30 -30 -30 -18 -15 -4 4 -20 -5 -3 -0 -3 -6 -7 -14 -11 -8 -9 -5 -3 -4 -3 -5 -7 -5 4 6 7 5 10 10 10 10 10 10 9
-1 0 1 -1 -5 -11 -18 -24 -29 -29 -28 -28 -16 -11 2 -10 -25 -4 0 -0 0 -1 -7 -15 -9 -4 -5 -4 -4 -4 -4 -5 -6 -7 3 3 4 5 9 10 10 10 10 9 9
1 -2 0 1 1 -3 -15 -21 -27 -29 -26 -25 -8 -3 1 -28 -27 -16 -7 -3 -2 0 -5 -8 -5 -5 -4 -4 -4 -4 -4 -3 -5 -6 2 1 4 4 9 9 11 8 9 8 8
-0 -1 -3 -1 1 -2 -15 -22 -25 -27 -27 -23 -6 4 1 -10 -8 -12 -10 -10 -2 -1 -5 -5 -5 -5 -5 -3 -2 -2 -1 -2 -3 -3 2 1 4 3 6 8 9 6 6 7 8
-1 1 -1 -2 -4 -3 -10 -23 -25 -29 -23 -11 6 5 -3 -12 -3 -1 -5 -8 -4 -2 -2 -3 -5 -3 -3 -2 1 -1 -1 -2 -2 0 3 4 3 4 4 6 7 5 6 8 8
-0 -2 0 -1 -4 -3 -5 -14 -10 5 1 5 5 0 -7 -4 -2 -2 -4 -7 -4 -2 -3 -4 -2 -0 -2 -3 -3 -2 -2 -2 -4 -1 4 5 4 3 6 7 6 6 7 8 8
1 -1 -2 -2 -3 -2 -1 -2 -2 1 3 -3 2 4 1 2 4 -3 -3 -4 -4 -0 -4 -3 -0 -2 -3 -3 -3 -2 -2 -1 -5 -1 1 3 5 4 4 6 5 6 8 9 9
1 1 0 -2 -4 -4 1 0 4 4 4 0 -5 -1 -1 -3 3 -0 -5 -5 -1 1 -1 -2 -2 -3 -3 -3 -2 -2 -2 -2 -4 -3 -2 2 2 5 4 4 6 6 6 8 9
1 1 1 -2 -5 -2 2 3 4 5 5 -0 -2 -7 -4 -5 -5 -18 -9 -6 -4 1 1 -1 -4 -3 -2 -2 -3 -1 -3 -4 -2 -1 1 -3 1 5 5 6 6 5 6 7 9
-0 -1 1 -0 -4 -0 3 3 5 5 -14 -17 -8 -13 -8 -7 -11 -9 -21 -7 -4 -0 -0 1 -1 -1 -1 -2 -3 -1 -2 -2 -2 -1 -0 -0 1 1 3 8 7 4 4 5 6
0 -0 -0 0 -1 -4 -4 1 5 5 2 -3 -8 -7 -6 -7 -6 -5 -8 -7 -5 -3 -1 -1 -3 -4 -3 -3 -3 -3 -2 -1 0 1 4 2 2 2 8 6 6 5 2 3 5
1 0 -0 -0 -0 -3 -1 3 4 3 -10 -13 -3 -2 -3 -6 -6 -5 -4 -3 -3 -0 -1 -2 -2 -3 -4 -2 -3 -3 0 3 4 5 5 5 5 4 0 4 4 5 5 3 2
1 1 0 -1 -1 -2 -0 4 4 -3 -6 -8 -9 -10 0 -2 -3 -3 -2 -2 -4 -3 -1 1 3 -2 -3 -2 -1 -2 -1 4 5 7 5 5 5 3 0 -0 -2 4 4 5 4
1 2 1 -1 -0 -1 1 4 3 -2 -7 -9 -12 -14 -12 -1 -1 -0 0 -1 -2 -5 1 2 1 -3 -4 -4 -3 -2 0 -1 7 8 8 6 5 1 -1 -2 -4 0 3 4 5
2 2 1 -1 0 -0 2 2 0 -4 -4 -4 -6 -7 -5 -6 -3 -1 1 -1 -1 -3 -4 -1 2 -1 -3 -4 -4 -3 -1 4 6 8 7 7 7 6 2 -3 -3 -5 1 3 4
2 2 1 -0 1 1 1 -0 -1 -3 -2 -1 -2 -5 -7 -6 -4 -4 -4 -2 -2 -2 -4 -4 -1 -0 -1 0 -2 -1 -0 2 5 6 7 7 5 1 1 -0 -1 -4 -6 -3 2
2 2 1 0 1 1 -0 -1 -2 -2 -3 -2 -2 -2 -2 -4 -3 -4 -3 -1 2 2 -2 -3 -1 0 -1 -2 -3 -3 -1 0 6 6 6 6 5 -1 -0 -1 -2 -3 -5 -2 -1
2 1 1 0 1 1 -1 -2 -2 -1 -2 -2 -1 -3 -4 -3 -1 -2 -1 -2 2 4 5 4 1 2 1 -1 -2 -0 -1 -1 1 4 6 7 6 0 -0 -1 -3 -3 -4 -5 -3
0 1 1 1 -0 -1 -1 -1 -2 -2 -2 -2 -1 -2 -3 -1 -2 -2 -2 -1 1 3 4 4 3 1 2 0 -0 1 0 -1 -0 4 3 5 2 1 -0 -1 -2 -3 -3 -4 -4
0 1 1 2 1 0 -1 -1 -1 -1 -2 -2 -1 -3 -1 -0 -1 -3 -3 2 2 5 5 7 7 3 0 -2 -1 -1 -2 0 1 1 3 1 4 1 1 -1 -1 -2 -3 -2 -3
-0 1 1 -0 0 1 -1 -0 -1 -1 -2 -1 -1 -2 -4 -1 -2 -1 -2 -2 5 6 6 6 8 6 3 -0 -1 -1 1 -0 -0 0 -0 -1 2 0 -1 -2 -2 -2 -2 -2 -3
1 1 -0 0 0 2 1 -1 -2 -1 -2 -3 -2 -2 -1 -3 -4 -2 -2 -1 4 5 6 6 7 7 5 1 1 2 0 -0 -0 -1 1 4 2 -0 -1 -2 -1 -2 -2 -3 -5

GFSSW_850_dewp_054.txt.gz
Dewpoint
-2 -7 -15 -18 -18 -20 -22 -27 -25 -26 -27 -28 -30 -30 -26 -26 -25 -19 -14 -13 -9 -5 -4 -8 -11 -13 -13 -8 -4 -5 -4 -3 -4 -6 -7 3 5 5 6 8 9 10 9 10 11
-2 -2 -2 -8 -16 -19 -18 -20 -25 -23 -26 -27 -30 -32 -30 -27 -27 -22 -13 -13 -4 -8 -4 -4 -10 -6 -6 -3 -4 -5 -4 -4 -6 -8 -7 0 4 4 4 5 8 8 9 9 11
-3 -2 -1 -1 -7 -9 -20 -19 -18 -23 -24 -25 -28 -31 -32 -23 -22 -14 -1 -5 -3 -8 -1 -4 -7 -4 -4 -5 -5 -6 -5 -6 -7 -8 -8 -4 4 3 5 6 6 7 7 9 11
-5 -3 -2 -2 -4 -7 -9 -14 -19 -18 -21 -23 -24 -28 -31 -22 -13 0 -4 -2 -1 -1 -1 -3 -8 -4 -8 -7 -7 -7 -8 -8 -8 -6 -2 4 5 6 6 7 7 6 7 9 10
-3 -4 -6 -7 -7 -9 -8 -7 -10 -18 -18 -19 -20 -24 -26 -9 -18 -10 -2 -2 -2 -3 -2 -4 -8 -5 -8 -9 -9 -8 -8 -6 -5 -4 -1 4 7 7 8 7 8 5 7 9 9
-3 -4 -4 -7 -9 -10 -11 -10 -7 -11 -20 -16 -15 -20 -13 1 -23 -21 -23 -10 -13 -7 -2 -3 -9 -7 -8 -8 -6 -5 -4 -4 -5 -3 0 5 7 8 5 8 9 7 7 8 9
-2 -2 -1 -4 -6 -12 -12 -11 -10 -6 -16 -20 -12 -12 -9 -25 -31 -26 -16 -6 -4 -5 -2 -4 -6 -5 -5 -4 -4 -4 -4 -5 -6 -5 4 6 4 8 5 7 9 9 9 11 10
-2 -3 -2 -2 -9 -14 -17 -17 -15 -11 -14 -18 -14 -8 -2 -33 -32 -30 -22 -7 -0 -1 -1 -3 -6 -8 -5 -4 -4 -4 -4 -3 -6 1 0 3 2 -2 2 8 9 9 9 9 9
-1 -1 -0 -0 -2 -7 -10 -17 -16 -14 -15 -16 -13 -6 -6 -19 -15 -8 -7 -19 0 1 -2 -1 -3 -4 -4 -3 -2 -3 -2 -4 -5 -5 2 3 3 2 8 10 10 9 9 8 9
0 -1 -0 0 1 0 -1 -9 -8 2 -4 -11 2 -0 -20 -25 -8 -1 -1 0 -7 -4 -3 -1 -1 -3 -3 -2 0 -1 -1 -3 -2 -3 2 4 4 2 6 10 10 9 9 7 7
-2 -1 -0 -0 0 0 -0 -8 -5 -0 -1 2 1 -8 -10 -3 1 -0 1 -1 -4 -3 0 -1 -1 0 -2 -3 -4 -4 -2 -2 -3 -5 -4 -3 -2 -3 4 9 9 10 9 7 6
-1 -1 -0 -0 0 0 -0 1 2 1 2 -1 -6 -1 -1 2 3 -10 -7 -1 -3 -1 -1 -2 0 -2 -3 -3 -3 -3 -2 -2 -4 -5 -3 -1 1 1 3 6 7 8 8 6 6
-1 -1 -0 0 -0 -1 -1 -0 2 -1 3 2 -2 -5 -7 -4 -1 -8 -3 -2 -2 -1 -0 -0 -1 -3 -3 -2 -1 -1 -1 -2 -3 -3 -3 1 1 -1 2 5 5 5 6 5 5
-2 -0 0 1 -1 -1 1 2 1 -1 3 -1 2 -2 -6 -7 1 -15 -7 -4 -2 -2 -1 -0 -2 -2 -2 -1 -2 -0 -2 -2 -2 -1 1 -0 4 -2 -2 3 5 6 5 5 5
-3 -1 0 1 1 0 -0 -0 -3 3 -4 -14 -3 -7 -6 -7 -9 -6 -9 -4 -3 -1 0 1 0 -0 -1 -1 -3 -1 -2 -2 -1 -0 -0 -1 0 -1 3 4 4 4 5 4 4
-3 -1 1 1 1 -0 -0 -1 -1 5 4 -5 -7 -3 -1 -3 -6 -5 -2 -5 -5 -2 -1 -1 -2 -2 -1 -3 -3 -3 -2 -1 0 1 3 1 0 1 -1 1 -0 2 3 3 3
-3 -1 1 1 1 0 -0 -2 4 4 -3 -9 -8 -6 -3 -2 -3 -6 -4 -4 -4 -1 -1 -3 -1 -2 -4 -2 -2 -2 -0 3 3 5 6 1 3 1 -1 -2 -0 -0 1 2 3
-2 -1 0 1 2 1 0 1 3 1 -1 -4 -6 -6 -5 -4 -5 -5 -5 -5 -7 -3 -1 -0 -0 -2 -3 -1 -0 -0 0 4 5 6 2 5 6 2 -0 -1 -1 -1 1 2 3
-2 -1 1 0 2 1 0 1 0 0 -2 -0 -3 -6 -5 -6 -3 -3 -4 -5 -7 -3 -1 0 -0 -4 -4 -3 -2 -0 1 -1 5 6 7 4 2 -1 -2 -1 -2 -1 0 3 3
-1 -1 -1 1 2 1 1 -0 -0 -0 -2 -1 -1 -2 -2 -3 -3 -3 -0 1 -2 -6 -4 -1 1 -1 -3 -4 -3 -2 -1 3 4 6 7 4 5 1 -2 -2 -1 -3 0 1 3
-1 -0 -1 0 1 1 1 1 -3 -6 -5 -1 1 0 -1 -1 -3 -3 -3 1 1 2 -3 -3 -1 -1 -3 -1 -1 -1 -0 2 2 3 4 4 3 1 0 -0 -0 -2 -5 -3 1
-0 0 1 1 1 -0 1 -0 -4 -5 -5 -2 -1 -1 -1 -2 -3 -2 -1 1 -5 3 3 1 -1 0 -3 -4 -3 -3 -1 2 4 3 5 4 2 -2 -0 -1 -1 -1 -3 -4 -5
-0 0 0 2 2 1 1 -1 -3 -3 -2 -1 -0 -1 -2 -3 -4 -3 -2 -2 -4 3 4 3 5 3 2 -1 -3 -2 -2 -1 2 3 4 5 3 -1 -1 -1 -1 -1 -3 -3 -5
-1 0 1 1 1 0 1 0 -1 -3 -3 -2 -1 -2 -2 -1 -3 -1 -1 -3 -3 2 4 3 5 6 6 6 6 5 2 -1 -0 3 2 3 1 -1 -1 -1 -2 -2 -3 -3 -3
-1 -1 0 1 1 0 -0 -1 -1 -2 -3 -3 -2 -1 -1 -0 -1 -2 -2 -2 -4 -2 5 5 4 7 6 6 5 4 4 1 1 0 2 -0 2 0 -1 -1 -2 -4 -3 -3 -3
-1 -0 1 1 -0 1 1 0 -1 -1 -3 -1 -1 -1 -2 -0 -2 -3 -3 -4 -3 -1 3 4 5 6 5 4 2 3 3 1 0 -1 1 1 0 -2 -2 -2 -2 -3 -3 -3 -3
-1 -1 1 1 2 1 1 0 -1 -2 -2 -4 -2 -2 -1 -2 -3 -3 -4 -4 -3 -0 -0 5 5 4 4 4 3 4 2 -1 2 0 -0 2 -0 -2 -2 -1 -1 -2 -3 -2 -3

GFSSW_850_dewp_057.txt.gz
Dewpoint
-5 -4 -3 -2 -4 -5 -10 -16 -18 -19 -23 -28 -28 -32 -33 -34 -33 -31 -22 -15 -14 -9 -4 -8 -4 -10 -9 -6 -5 -5 -3 -3 -4 -5 -7 -0 3 5 5 6 8 9 9 9 8
-5 -5 -3 -2 -2 -2 -3 -7 -11 -16 -19 -21 -27 -30 -32 -33 -33 -31 -19 -14 -14 -7 -4 -5 -8 -12 -11 -6 -5 -5 -3 -4 -6 -7 -7 -5 1 3 4 5 7 8 7 8 9
-7 -8 -7 -6 -3 -2 -2 -5 -8 -9 -12 -17 -20 -27 -31 -32 -29 -13 -1 -2 -11 -3 -3 -6 -9 -11 -4 -3 -4 -5 -4 -6 -6 -7 -7 -7 0 3 4 4 4 7 6 9 9
-6 -7 -8 -8 -8 -8 -9 -9 -9 -8 -7 -10 -14 -22 -28 -29 -18 -0 -2 -4 -3 -2 -2 -5 -4 -4 -4 -4 -5 -5 -6 -7 -8 -7 -4 -3 3 5 4 3 4 5 7 8 9
-5 -7 -10 -10 -10 -11 -12 -13 -11 -10 -9 -7 -9 -19 -21 -16 -28 -33 -8 1 1 -2 -1 -5 -4 -5 -5 -8 -8 -6 -8 -8 -8 -6 -4 1 4 5 7 4 5 6 7 8 9
-3 -8 -10 -7 -9 -12 -14 -14 -13 -13 -11 -10 -7 -10 -16 -1 -27 -24 -22 -12 -2 -1 -1 -3 -8 -7 -7 -8 -7 -6 -7 -5 -4 -5 -3 3 5 7 5 5 7 7 8 9 9
-4 -5 -5 -4 -2 -5 -10 -15 -16 -15 -14 -13 -9 -10 -13 -17 -31 -32 -31 -24 -13 -12 -10 -2 -6 -7 -7 -5 -7 -4 -3 -5 -5 -5 -1 4 3 7 5 6 9 8 9 9 9
-1 -0 -1 -3 -2 -1 -2 -11 -16 -15 -18 -15 -12 -9 -13 -26 -29 -32 -32 -29 -6 -0 -5 -3 -5 -6 -7 -4 -4 -3 -4 -3 -6 -0 2 3 -0 -2 5 8 8 9 9 9 9
-1 -2 -2 -1 -1 -1 -1 -3 -10 -15 -11 -7 -7 -11 -12 -18 -21 -10 -10 -21 -19 -1 -1 -2 -5 -5 -4 -3 -2 -2 -3 -3 -5 -3 3 3 1 0 7 9 8 9 9 9 8
-2 -2 -2 -1 -1 -1 -1 -3 -10 1 -0 -5 -1 -5 -15 -18 -10 0 -0 1 -12 -0 0 -2 -2 -2 -3 -3 -3 -1 -2 -2 -4 -0 2 2 1 -1 5 8 8 9 9 9 8
-1 -2 -1 -1 -0 -0 -1 -3 -5 -1 -4 1 1 -1 -9 -6 -7 0 1 0 -3 -5 0 -0 1 0 -3 -2 -4 -3 -3 -3 -4 -5 -4 -3 -3 -3 -3 7 8 9 9 9 8
-2 -4 -2 -1 -0 -1 -1 1 2 1 1 -1 -4 -4 -5 0 2 1 -0 -2 -2 -4 -1 -1 2 -0 -3 -3 -3 -3 -2 -2 -3 -5 -4 -4 -2 -2 -0 2 5 7 9 9 8
-4 -4 -2 -0 0 -1 1 -1 1 -1 2 1 1 0 -1 -3 -1 -7 -4 -0 -2 -1 -0 0 -1 -2 -2 -2 -2 -2 -1 -1 -3 -4 -4 -1 -0 -2 -2 3 4 6 7 8 7
-4 -5 -2 0 0 -0 -0 -0 -0 -2 4 -1 1 -1 -2 -4 -2 -7 -10 -5 -2 -2 -1 -1 -3 -2 -2 -2 -2 -0 -2 -2 -3 -3 -2 -1 1 -1 -3 -2 1 3 5 6 7
-4 -4 -2 1 1 1 0 -1 -2 1 -2 -10 -3 -6 -4 -6 -8 -5 -7 -6 -2 -2 -1 -0 0 -1 -1 -3 -2 -2 -2 -2 -2 -1 0 -0 1 -1 -1 -1 -2 -1 2 4 4
-4 -4 -2 -0 1 1 0 -1 -1 4 2 -4 -6 -2 -2 -3 -5 -3 -3 -4 -6 -1 0 -3 -1 -2 -3 -2 -3 -2 -2 -1 1 1 3 1 0 0 -2 -2 -3 -2 -1 1 3
-3 -3 -2 -0 1 1 1 -2 3 2 -3 -3 -4 -6 -7 -6 -2 -4 -2 -2 -3 0 3 -0 -1 -2 -3 -1 -2 -2 0 2 4 5 4 1 1 0 -2 -3 -2 -2 -2 -2 1
-4 -3 -2 -1 0 0 1 1 1 -2 0 -3 -3 -4 -6 -4 -4 -4 -3 -2 -4 -3 -2 1 1 -0 -1 -1 0 -0 -1 3 5 5 2 4 4 -0 -1 -1 -1 -1 -1 -1 1
-4 -3 -2 -3 -0 1 1 1 -0 -3 -2 -1 -2 -3 -4 -5 -4 -3 -4 -4 -6 -5 -1 -0 -1 -4 -3 -2 -2 0 1 -1 3 6 6 3 2 -1 -3 -3 -3 -2 -3 -1 -0
-2 -2 -3 -3 -1 1 1 -0 -2 -2 -3 -2 -0 -1 -1 -2 -4 -3 -0 -4 -0 -5 -3 -1 1 -2 -3 -3 -2 -1 -1 2 3 4 5 3 4 1 -1 -3 -3 -1 -3 -1 -2
-2 -1 -4 -2 -1 1 1 1 -2 -5 -5 -2 -1 -0 -1 -2 -4 -5 0 -3 -3 1 -4 -1 -1 -1 -1 -1 -1 -0 0 2 1 3 4 4 3 1 0 -1 -1 -0 -2 -4 -5
-1 -1 -3 0 1 0 2 1 -2 -4 -5 -3 -1 -1 -1 -3 -4 -6 -3 -0 -2 1 3 2 -0 1 -1 -3 -3 -2 -0 1 4 3 5 5 2 -2 -0 0 0 -1 -2 -3 -5
-2 -2 -2 0 1 0 2 1 -3 -3 -3 -3 -0 -1 -2 -2 -4 -4 -2 -3 -3 -3 6 4 5 4 2 -1 -0 0 -1 -0 3 3 4 6 3 -2 -0 -1 -1 -1 -1 -3 -3
-1 -0 -1 0 -0 -1 1 1 -1 -3 -4 -3 -1 -2 -2 -1 -2 -1 -2 -4 -4 -4 3 3 5 5 5 5 5 6 4 3 1 3 2 3 1 -1 -1 -0 -1 -1 -5 -4 -3
-1 -1 -1 0 0 0 0 -0 -0 -1 -3 -3 -3 -2 -2 -0 -1 -2 -3 -3 -5 -1 2 4 5 4 5 5 5 3 3 3 2 1 2 1 1 -1 -1 -2 -2 -2 -3 -3 -3
-1 -1 -0 -1 0 1 2 1 -1 -2 -3 -2 -2 -2 -2 -1 -2 -3 -3 -3 -4 -2 -1 -1 6 5 4 3 3 2 1 -1 1 0 0 0 0 -2 -1 -2 -2 -2 -2 -3 -3
-2 -1 -0 -1 -1 1 -0 -0 -0 -2 -2 -4 -3 -2 -1 -2 -2 -3 -3 -3 -3 -2 -2 0 5 4 2 4 2 1 2 0 1 1 1 1 -3 -4 3 2 0 -1 -2 -3 -4